Time,TemperatureF,DewpointF,PressureIn,WindDirection,WindDirectionDegrees,WindSpeedMPH,WindSpeedGustMPH,Humidity,HourlyPrecipIn,Conditions,Clouds,dailyrainin,SolarRadiationWatts/m^2,SoftwareType,DateUTC
2013-03-23 00:00:00,49.4,43.8,29.92,SE,137,0.0,0.0,81,0.00,CLR,FEW,0.00,0.0,WeatherDisplay:10.37,2013-03-23 07:00:00,
2013-03-23 00:03:00,49.4,43.8,29.92,SE,137,0.0,0.0,81,0.00,CLR,FEW,0.00,0.0,WeatherDisplay:10.37,2013-03-23 07:03:00,
2013-03-23 00:05:00,49.6,44.0,29.92,SE,137,0.0,0.0,81,0.00,CLR,FEW,0.00,0.0,WeatherDisplay:10.37,2013-03-23 07:05:00,
2013-03-23 00:06:00,49.8,44.2,29.92,SE,137,0.0,0.0,81,0.00,CLR,FEW,0.00,0.0,WeatherDisplay:10.37,2013-03-23 07:06:00,
2013-03-23 00:08:00,49.9,44.3,29.92,SE,137,0.0,0.0,81,0.00,CLR,FEW,0.00,0.0,WeatherDisplay:10.37,2013-03-23 07:08:00,
2013-03-23 00:10:00,50.1,44.5,29.92,SE,137,0.0,0.0,81,0.00,CLR,FEW,0.00,0.0,WeatherDisplay:10.37,2013-03-23 07:10:00,
2013-03-23 00:12:00,50.1,44.5,29.92,SE,137,0.0,0.0,81,0.00,CLR,FEW,0.00,0.0,WeatherDisplay:10.37,2013-03-23 07:12:00,
2013-03-23 00:14:00,50.1,44.5,29.92,SE,137,0.0,0.0,81,0.00,CLR,FEW,0.00,0.0,WeatherDisplay:10.37,2013-03-23 07:14:00,
2013-03-23 00:15:00,49.8,43.9,29.92,SE,137,0.0,0.0,80,0.00,CLR,FEW,0.00,0.0,WeatherDisplay:10.37,2013-03-23 07:15:00,
2013-03-23 00:17:00,49.6,43.7,29.92,SE,137,0.0,0.0,80,0.00,CLR,FEW,0.00,0.0,WeatherDisplay:10.37,2013-03-23 07:17:00,
2013-03-23 00:19:00,49.2,43.0,29.92,SE,137,0.0,0.0,79,0.00,CLR,FEW,0.00,0.0,WeatherDisplay:10.37,2013-03-23 07:19:00,
2013-03-23 00:20:00,49.3,43.1,29.92,SE,137,0.0,0.0,79,0.00,CLR,FEW,0.00,0.0,WeatherDisplay:10.37,2013-03-23 07:20:00,
2013-03-23 00:22:00,49.1,43.2,29.92,SE,137,0.0,0.0,80,0.00,CLR,FEW,0.00,0.0,WeatherDisplay:10.37,2013-03-23 07:22:00,
2013-03-23 00:25:00,49.2,43.3,29.92,SE,137,0.0,0.0,80,0.00,CLR,FEW,0.00,0.0,WeatherDisplay:10.37,2013-03-23 07:25:00,
2013-03-23 00:26:00,49.2,43.3,29.92,SE,137,0.0,0.0,80,0.00,CLR,FEW,0.00,0.0,WeatherDisplay:10.37,2013-03-23 07:26:00,
2013-03-23 00:27:00,49.2,43.3,29.92,SE,137,0.0,0.0,80,0.00,CLR,FEW,0.00,0.0,WeatherDisplay:10.37,2013-03-23 07:27:00,
2013-03-23 00:28:00,49.2,43.3,29.92,SE,137,0.0,0.0,80,0.00,CLR,FEW,0.00,0.0,WeatherDisplay:10.37,2013-03-23 07:28:00,
2013-03-23 00:30:00,49.2,43.3,29.92,SE,137,0.0,0.0,80,0.00,CLR,FEW,0.00,0.0,WeatherDisplay:10.37,2013-03-23 07:30:00,
2013-03-23 00:31:00,49.4,43.5,29.90,SE,137,0.0,0.0,80,0.00,CLR,FEW,0.00,0.0,WeatherDisplay:10.37,2013-03-23 07:31:00,
2013-03-23 00:32:00,49.5,43.6,29.90,SE,137,0.0,0.0,80,0.00,CLR,FEW,0.00,0.0,WeatherDisplay:10.37,2013-03-23 07:32:00,
2013-03-23 00:33:00,49.5,43.6,29.90,SE,137,0.0,0.0,80,0.00,CLR,FEW,0.00,0.0,WeatherDisplay:10.37,2013-03-23 07:33:00,
2013-03-23 00:35:00,49.6,43.7,29.90,SE,137,0.0,0.0,80,0.00,CLR,FEW,0.00,0.0,WeatherDisplay:10.37,2013-03-23 07:35:00,
2013-03-23 00:36:00,49.6,43.7,29.90,SE,137,0.0,0.0,80,0.00,CLR,FEW,0.00,0.0,WeatherDisplay:10.37,2013-03-23 07:36:00,
2013-03-23 00:37:00,49.6,43.4,29.90,SE,137,0.2,0.0,79,0.00,CLR,FEW,0.00,0.0,WeatherDisplay:10.37,2013-03-23 07:37:00,
2013-03-23 00:38:00,49.6,43.4,29.90,SE,137,0.0,1.2,79,0.00,CLR,FEW,0.00,0.0,WeatherDisplay:10.37,2013-03-23 07:38:00,
2013-03-23 00:42:00,49.5,42.9,29.90,SE,137,0.0,0.0,78,0.00,CLR,FEW,0.00,0.0,WeatherDisplay:10.37,2013-03-23 07:42:00,
2013-03-23 00:43:00,49.5,42.9,29.90,ENE,78,0.0,0.0,78,0.00,CLR,FEW,0.00,0.0,WeatherDisplay:10.37,2013-03-23 07:43:00,
2013-03-23 00:44:00,49.5,42.9,29.90,ENE,78,0.0,0.0,78,0.00,CLR,FEW,0.00,0.0,WeatherDisplay:10.37,2013-03-23 07:44:00,
2013-03-23 00:47:00,49.6,42.7,29.90,East,84,0.0,0.0,77,0.00,CLR,FEW,0.00,0.0,WeatherDisplay:10.37,2013-03-23 07:47:00,
2013-03-23 00:49:00,49.6,42.7,29.90,East,84,0.0,0.0,77,0.00,CLR,FEW,0.00,0.0,WeatherDisplay:10.37,2013-03-23 07:49:00,
2013-03-23 00:50:00,49.5,42.6,29.90,East,84,0.0,1.2,77,0.00,CLR,FEW,0.00,0.0,WeatherDisplay:10.37,2013-03-23 07:50:00,
2013-03-23 00:52:00,49.5,42.6,29.90,East,84,0.0,0.0,77,0.00,CLR,FEW,0.00,0.0,WeatherDisplay:10.37,2013-03-23 07:52:00,
2013-03-23 00:54:00,49.5,42.6,29.90,East,84,0.0,0.0,77,0.00,CLR,FEW,0.00,0.0,WeatherDisplay:10.37,2013-03-23 07:54:00,
2013-03-23 00:56:00,49.6,42.7,29.90,East,84,0.0,0.0,77,0.00,CLR,FEW,0.00,0.0,WeatherDisplay:10.37,2013-03-23 07:56:00,
2013-03-23 00:58:00,49.6,42.7,29.90,East,84,0.0,0.0,77,0.00,CLR,FEW,0.00,0.0,WeatherDisplay:10.37,2013-03-23 07:58:00,
2013-03-23 00:59:00,49.6,42.7,29.90,East,84,0.0,0.0,77,0.00,CLR,FEW,0.00,0.0,WeatherDisplay:10.37,2013-03-23 07:59:00,
2013-03-23 01:00:00,49.6,42.7,29.90,East,84,0.0,0.0,77,0.00,CLR,FEW,0.00,0.0,WeatherDisplay:10.37,2013-03-23 08:00:00,
2013-03-23 01:01:00,49.6,42.7,29.90,East,84,0.0,0.0,77,0.00,CLR,FEW,0.00,0.0,WeatherDisplay:10.37,2013-03-23 08:01:00,
2013-03-23 01:05:00,49.6,42.7,29.90,East,84,0.0,0.0,77,0.00,CLR,FEW,0.00,0.0,WeatherDisplay:10.37,2013-03-23 08:05:00,
2013-03-23 01:06:00,49.6,42.7,29.90,East,83,0.0,0.0,77,0.00,CLR,FEW,0.00,0.0,WeatherDisplay:10.37,2013-03-23 08:06:00,
2013-03-23 01:10:00,49.8,42.9,29.90,NNE,30,0.0,0.0,77,0.00,CLR,FEW,0.00,0.0,WeatherDisplay:10.37,2013-03-23 08:10:00,
2013-03-23 01:11:00,49.8,42.9,29.90,NNE,30,0.0,0.0,77,0.00,CLR,FEW,0.00,0.0,WeatherDisplay:10.37,2013-03-23 08:11:00,
2013-03-23 01:12:00,49.8,42.9,29.90,NNE,30,0.0,0.0,77,0.00,CLR,FEW,0.00,0.0,WeatherDisplay:10.37,2013-03-23 08:12:00,
2013-03-23 01:15:00,49.8,43.2,29.91,NNE,12,0.0,1.3,78,0.00,CLR,FEW,0.00,0.0,WeatherDisplay:10.37,2013-03-23 08:15:00,
2013-03-23 01:17:00,49.9,43.3,29.91,NE,53,0.0,0.0,78,0.00,CLR,FEW,0.00,0.0,WeatherDisplay:10.37,2013-03-23 08:17:00,
2013-03-23 01:21:00,50.2,43.6,29.91,NE,53,0.0,0.0,78,0.00,CLR,FEW,0.00,0.0,WeatherDisplay:10.37,2013-03-23 08:21:00,
2013-03-23 01:22:00,50.2,43.3,29.91,NE,53,0.0,0.0,77,0.00,CLR,FEW,0.00,0.0,WeatherDisplay:10.37,2013-03-23 08:22:00,
2013-03-23 01:23:00,50.2,43.3,29.91,NE,53,0.0,0.0,77,0.00,CLR,FEW,0.00,0.0,WeatherDisplay:10.37,2013-03-23 08:23:00,
2013-03-23 01:27:00,50.1,43.5,29.91,NE,53,0.0,0.0,78,0.00,CLR,FEW,0.00,0.0,WeatherDisplay:10.37,2013-03-23 08:27:00,
2013-03-23 01:28:00,50.1,43.5,29.91,NE,53,0.0,0.0,78,0.00,CLR,FEW,0.00,0.0,WeatherDisplay:10.37,2013-03-23 08:28:00,
2013-03-23 01:29:00,50.1,43.5,29.91,NE,53,0.0,0.0,78,0.00,CLR,FEW,0.00,0.0,WeatherDisplay:10.37,2013-03-23 08:29:00,
2013-03-23 01:32:00,49.9,43.0,29.91,NE,53,0.0,0.0,77,0.00,CLR,FEW,0.00,0.0,WeatherDisplay:10.37,2013-03-23 08:32:00,
2013-03-23 01:33:00,49.8,42.9,29.91,NE,53,0.0,0.0,77,0.00,CLR,FEW,0.00,0.0,WeatherDisplay:10.37,2013-03-23 08:33:00,
2013-03-23 01:34:00,49.6,42.3,29.91,NE,53,0.0,0.0,76,0.00,CLR,FEW,0.00,0.0,WeatherDisplay:10.37,2013-03-23 08:34:00,
2013-03-23 01:37:00,49.5,42.6,29.91,NE,53,0.0,0.0,77,0.00,CLR,FEW,0.00,0.0,WeatherDisplay:10.37,2013-03-23 08:37:00,
2013-03-23 01:38:00,49.5,42.6,29.91,NE,53,0.0,0.0,77,0.00,CLR,FEW,0.00,0.0,WeatherDisplay:10.37,2013-03-23 08:38:00,
2013-03-23 01:40:00,49.5,42.6,29.91,NE,53,0.0,0.0,77,0.00,CLR,FEW,0.00,0.0,WeatherDisplay:10.37,2013-03-23 08:40:00,
2013-03-23 01:42:00,49.2,42.0,29.91,NE,53,0.0,0.0,76,0.00,CLR,FEW,0.00,0.0,WeatherDisplay:10.37,2013-03-23 08:42:00,
2013-03-23 01:44:00,49.1,42.2,29.91,NE,53,0.0,0.0,77,0.00,CLR,FEW,0.00,0.0,WeatherDisplay:10.37,2013-03-23 08:44:00,
2013-03-23 01:47:00,48.9,42.0,29.92,NE,53,0.0,0.0,77,0.00,CLR,FEW,0.00,0.0,WeatherDisplay:10.37,2013-03-23 08:47:00,
2013-03-23 01:49:00,49.1,42.5,29.92,NE,53,0.0,0.0,78,0.00,CLR,FEW,0.00,0.0,WeatherDisplay:10.37,2013-03-23 08:49:00,
2013-03-23 01:52:00,49.1,42.5,29.92,NE,53,0.0,0.0,78,0.00,CLR,FEW,0.00,0.0,WeatherDisplay:10.37,2013-03-23 08:52:00,
2013-03-23 01:53:00,49.1,42.5,29.92,NE,53,0.0,0.0,78,0.00,CLR,FEW,0.00,0.0,WeatherDisplay:10.37,2013-03-23 08:53:00,
2013-03-23 01:55:00,49.1,42.5,29.92,NE,53,0.0,0.0,78,0.00,CLR,FEW,0.00,0.0,WeatherDisplay:10.37,2013-03-23 08:55:00,
2013-03-23 01:58:00,48.3,41.4,29.92,ENE,67,0.0,0.0,77,0.00,CLR,FEW,0.00,0.0,WeatherDisplay:10.37,2013-03-23 08:58:00,
2013-03-23 02:00:00,48.2,41.7,29.92,ENE,76,0.3,2.6,78,0.00,CLR,FEW,0.00,0.0,WeatherDisplay:10.37,2013-03-23 09:00:00,
2013-03-23 02:03:00,48.2,41.7,29.92,East,80,0.6,3.5,78,0.00,CLR,FEW,0.00,0.0,WeatherDisplay:10.37,2013-03-23 09:03:00,
2013-03-23 02:04:00,48.2,41.7,29.92,East,80,0.0,1.2,78,0.00,CLR,FEW,0.00,0.0,WeatherDisplay:10.37,2013-03-23 09:04:00,
2013-03-23 02:06:00,48.0,41.5,29.92,East,80,0.0,1.2,78,0.00,CLR,FEW,0.00,0.0,WeatherDisplay:10.37,2013-03-23 09:06:00,
2013-03-23 02:07:00,48.0,41.5,29.92,East,80,0.0,1.2,78,0.00,CLR,FEW,0.00,0.0,WeatherDisplay:10.37,2013-03-23 09:07:00,
2013-03-23 02:09:00,47.9,41.4,29.92,East,80,0.0,0.0,78,0.00,CLR,FEW,0.00,0.0,WeatherDisplay:10.37,2013-03-23 09:09:00,
2013-03-23 02:12:00,47.9,41.4,29.92,East,80,0.1,1.2,78,0.00,CLR,FEW,0.00,0.0,WeatherDisplay:10.37,2013-03-23 09:12:00,
2013-03-23 02:13:00,48.0,41.5,29.92,East,80,0.2,1.2,78,0.00,CLR,FEW,0.00,0.0,WeatherDisplay:10.37,2013-03-23 09:13:00,
2013-03-23 02:15:00,48.0,41.5,29.92,East,101,0.4,1.2,78,0.00,CLR,FEW,0.00,0.0,WeatherDisplay:10.37,2013-03-23 09:15:00,
2013-03-23 02:17:00,48.2,41.7,29.91,East,101,0.0,0.0,78,0.00,CLR,FEW,0.00,0.0,WeatherDisplay:10.37,2013-03-23 09:17:00,
2013-03-23 02:20:00,48.2,41.7,29.91,East,101,0.1,1.2,78,0.00,CLR,FEW,0.00,0.0,WeatherDisplay:10.37,2013-03-23 09:20:00,
2013-03-23 02:21:00,48.2,41.3,29.91,East,101,0.0,0.0,77,0.00,CLR,FEW,0.00,0.0,WeatherDisplay:10.37,2013-03-23 09:21:00,
2013-03-23 02:22:00,48.2,41.3,29.91,East,101,0.0,0.0,77,0.00,CLR,FEW,0.00,0.0,WeatherDisplay:10.37,2013-03-23 09:22:00,
2013-03-23 02:23:00,48.2,41.3,29.91,East,101,0.0,0.0,77,0.00,CLR,FEW,0.00,0.0,WeatherDisplay:10.37,2013-03-23 09:23:00,
2013-03-23 02:25:00,48.2,41.3,29.91,East,101,0.0,0.0,77,0.00,CLR,FEW,0.00,0.0,WeatherDisplay:10.37,2013-03-23 09:25:00,
2013-03-23 02:27:00,48.0,41.1,29.91,East,101,0.0,0.0,77,0.00,CLR,FEW,0.00,0.0,WeatherDisplay:10.37,2013-03-23 09:27:00,
2013-03-23 02:28:00,48.0,41.1,29.91,East,101,0.0,0.0,77,0.00,CLR,FEW,0.00,0.0,WeatherDisplay:10.37,2013-03-23 09:28:00,
2013-03-23 02:29:00,48.0,41.1,29.91,East,101,0.0,0.0,77,0.00,CLR,FEW,0.00,0.0,WeatherDisplay:10.37,2013-03-23 09:29:00,
2013-03-23 02:32:00,48.2,41.0,29.90,East,100,0.1,1.2,76,0.00,CLR,FEW,0.00,0.0,WeatherDisplay:10.37,2013-03-23 09:32:00,
2013-03-23 02:34:00,48.3,40.7,29.90,East,100,0.1,1.2,75,0.00,CLR,FEW,0.00,0.0,WeatherDisplay:10.37,2013-03-23 09:34:00,
2013-03-23 02:35:00,48.3,40.7,29.90,East,100,0.0,0.0,75,0.00,CLR,FEW,0.00,0.0,WeatherDisplay:10.37,2013-03-23 09:35:00,
2013-03-23 02:37:00,48.5,40.6,29.90,East,100,0.0,1.2,74,0.00,CLR,FEW,0.00,0.0,WeatherDisplay:10.37,2013-03-23 09:37:00,
2013-03-23 02:38:00,48.5,40.6,29.90,East,100,0.1,0.0,74,0.00,CLR,FEW,0.00,0.0,WeatherDisplay:10.37,2013-03-23 09:38:00,
2013-03-23 02:39:00,48.6,40.3,29.90,East,100,0.0,1.2,73,0.00,CLR,FEW,0.00,0.0,WeatherDisplay:10.37,2013-03-23 09:39:00,
2013-03-23 02:40:00,48.6,40.3,29.90,East,100,0.0,0.0,73,0.00,CLR,FEW,0.00,0.0,WeatherDisplay:10.37,2013-03-23 09:40:00,
2013-03-23 02:42:00,48.6,40.3,29.90,East,100,0.0,0.0,73,0.00,CLR,FEW,0.00,0.0,WeatherDisplay:10.37,2013-03-23 09:42:00,
2013-03-23 02:44:00,48.6,40.3,29.90,East,100,0.0,0.0,73,0.00,CLR,FEW,0.00,0.0,WeatherDisplay:10.37,2013-03-23 09:44:00,
2013-03-23 02:45:00,48.6,40.3,29.90,NNE,26,0.0,0.0,73,0.00,CLR,FEW,0.00,0.0,WeatherDisplay:10.37,2013-03-23 09:45:00,
2013-03-23 02:46:00,48.8,40.5,29.90,NNE,28,0.0,0.0,73,0.00,CLR,FEW,0.00,0.0,WeatherDisplay:10.37,2013-03-23 09:46:00,
2013-03-23 02:49:00,49.2,40.6,29.90,NE,38,0.0,0.0,72,0.00,CLR,FEW,0.00,0.0,WeatherDisplay:10.37,2013-03-23 09:49:00,
2013-03-23 02:50:00,49.2,40.6,29.90,NE,38,0.0,0.0,72,0.00,CLR,FEW,0.00,0.0,WeatherDisplay:10.37,2013-03-23 09:50:00,
2013-03-23 02:51:00,49.4,40.7,29.90,East,85,0.1,1.2,72,0.00,CLR,FEW,0.00,0.0,WeatherDisplay:10.37,2013-03-23 09:51:00,
2013-03-23 02:55:00,49.5,40.5,29.90,ENE,68,0.0,0.0,71,0.00,CLR,FEW,0.00,0.0,WeatherDisplay:10.37,2013-03-23 09:55:00,
2013-03-23 02:56:00,49.4,40.4,29.90,East,85,0.0,0.0,71,0.00,CLR,FEW,0.00,0.0,WeatherDisplay:10.37,2013-03-23 09:56:00,
2013-03-23 02:57:00,49.4,40.4,29.90,East,85,0.0,0.0,71,0.00,CLR,FEW,0.00,0.0,WeatherDisplay:10.37,2013-03-23 09:57:00,
2013-03-23 03:01:00,49.1,39.7,29.90,East,85,0.0,0.0,70,0.00,CLR,FEW,0.00,0.0,WeatherDisplay:10.37,2013-03-23 10:01:00,
2013-03-23 03:02:00,49.1,39.4,29.90,East,85,0.0,0.0,69,0.00,CLR,FEW,0.00,0.0,WeatherDisplay:10.37,2013-03-23 10:02:00,
2013-03-23 03:07:00,48.6,38.5,29.90,East,85,0.0,0.0,68,0.00,CLR,FEW,0.00,0.0,WeatherDisplay:10.37,2013-03-23 10:07:00,
2013-03-23 03:08:00,48.6,38.9,29.90,East,85,0.0,0.0,69,0.00,CLR,FEW,0.00,0.0,WeatherDisplay:10.37,2013-03-23 10:08:00,
2013-03-23 03:12:00,48.5,38.8,29.90,East,85,0.0,0.0,69,0.00,CLR,FEW,0.00,0.0,WeatherDisplay:10.37,2013-03-23 10:12:00,
2013-03-23 03:13:00,48.6,39.3,29.90,East,85,0.0,0.0,70,0.00,CLR,FEW,0.00,0.0,WeatherDisplay:10.37,2013-03-23 10:13:00,
2013-03-23 03:14:00,48.6,39.3,29.90,East,85,0.0,0.0,70,0.00,CLR,FEW,0.00,0.0,WeatherDisplay:10.37,2013-03-23 10:14:00,
2013-03-23 03:15:00,48.6,39.3,29.90,East,85,0.0,0.0,70,0.00,CLR,FEW,0.00,0.0,WeatherDisplay:10.37,2013-03-23 10:15:00,
2013-03-23 03:18:00,48.5,39.2,29.90,East,85,0.0,0.0,70,0.00,CLR,FEW,0.00,0.0,WeatherDisplay:10.37,2013-03-23 10:18:00,
2013-03-23 03:19:00,48.5,39.2,29.90,East,85,0.0,0.0,70,0.00,CLR,FEW,0.00,0.0,WeatherDisplay:10.37,2013-03-23 10:19:00,
2013-03-23 03:22:00,47.9,38.6,29.90,East,85,0.0,0.0,70,0.00,CLR,FEW,0.00,0.0,WeatherDisplay:10.37,2013-03-23 10:22:00,
2013-03-23 03:23:00,47.9,38.2,29.90,East,85,0.0,0.0,69,0.00,CLR,FEW,0.00,0.0,WeatherDisplay:10.37,2013-03-23 10:23:00,
2013-03-23 03:24:00,47.9,38.2,29.90,East,85,0.0,0.0,69,0.00,CLR,FEW,0.00,0.0,WeatherDisplay:10.37,2013-03-23 10:24:00,
2013-03-23 03:28:00,47.3,38.0,29.90,East,98,0.4,1.2,70,0.00,CLR,FEW,0.00,0.0,WeatherDisplay:10.37,2013-03-23 10:28:00,
2013-03-23 03:29:00,47.1,37.8,29.90,East,101,1.1,6.9,70,0.00,CLR,FEW,0.00,0.0,WeatherDisplay:10.37,2013-03-23 10:29:00,
2013-03-23 03:30:00,47.1,37.8,29.90,East,101,0.1,6.9,70,0.00,CLR,FEW,0.00,0.0,WeatherDisplay:10.37,2013-03-23 10:30:00,
2013-03-23 03:33:00,46.7,37.4,29.90,ESE,102,0.0,0.0,70,0.00,CLR,FEW,0.00,0.0,WeatherDisplay:10.37,2013-03-23 10:33:00,
2013-03-23 03:34:00,46.7,37.8,29.90,ESE,102,0.0,0.0,71,0.00,CLR,FEW,0.00,0.0,WeatherDisplay:10.37,2013-03-23 10:34:00,
2013-03-23 03:35:00,46.7,37.8,29.90,ESE,103,0.0,0.0,71,0.00,CLR,FEW,0.00,0.0,WeatherDisplay:10.37,2013-03-23 10:35:00,
2013-03-23 03:37:00,46.7,38.1,29.90,ESE,107,1.1,5.8,72,0.00,CLR,FEW,0.00,0.0,WeatherDisplay:10.37,2013-03-23 10:37:00,
2013-03-23 03:40:00,46.7,38.5,29.90,ESE,107,0.1,1.2,73,0.00,CLR,FEW,0.00,0.0,WeatherDisplay:10.37,2013-03-23 10:40:00,
2013-03-23 03:41:00,46.8,38.9,29.90,ESE,107,0.0,0.0,74,0.00,CLR,FEW,0.00,0.0,WeatherDisplay:10.37,2013-03-23 10:41:00,
2013-03-23 03:42:00,46.8,38.9,29.90,ESE,107,0.0,0.0,74,0.00,CLR,FEW,0.00,0.0,WeatherDisplay:10.37,2013-03-23 10:42:00,
2013-03-23 03:45:00,46.7,38.9,29.90,ESE,107,0.0,0.0,74,0.00,CLR,FEW,0.00,0.0,WeatherDisplay:10.37,2013-03-23 10:45:00,
2013-03-23 03:46:00,46.4,38.6,29.90,ESE,107,0.0,0.0,74,0.00,CLR,FEW,0.00,0.0,WeatherDisplay:10.37,2013-03-23 10:46:00,
2013-03-23 03:47:00,46.2,38.4,29.90,ESE,107,0.0,0.0,74,0.00,CLR,FEW,0.00,0.0,WeatherDisplay:10.37,2013-03-23 10:47:00,
2013-03-23 03:49:00,45.8,38.0,29.90,ESE,107,0.0,0.0,74,0.00,CLR,FEW,0.00,0.0,WeatherDisplay:10.37,2013-03-23 10:49:00,
2013-03-23 03:50:00,45.8,38.3,29.90,ESE,107,0.0,0.0,75,0.00,CLR,FEW,0.00,0.0,WeatherDisplay:10.37,2013-03-23 10:50:00,
2013-03-23 03:52:00,46.1,39.0,29.90,ESE,107,0.0,0.0,76,0.00,CLR,FEW,0.00,0.0,WeatherDisplay:10.37,2013-03-23 10:52:00,
2013-03-23 03:53:00,46.2,39.4,29.90,ESE,107,0.0,0.0,77,0.00,CLR,FEW,0.00,0.0,WeatherDisplay:10.37,2013-03-23 10:53:00,
2013-03-23 03:55:00,46.0,38.5,29.90,ESE,107,0.0,0.0,75,0.00,CLR,FEW,0.00,0.0,WeatherDisplay:10.37,2013-03-23 10:55:00,
2013-03-23 03:58:00,45.7,38.6,29.90,ESE,107,0.0,0.0,76,0.00,CLR,FEW,0.00,0.0,WeatherDisplay:10.37,2013-03-23 10:58:00,
2013-03-23 04:00:00,45.7,38.6,29.90,ESE,107,0.0,0.0,76,0.00,CLR,FEW,0.00,0.0,WeatherDisplay:10.37,2013-03-23 11:00:00,
2013-03-23 04:01:00,45.7,38.6,29.90,ESE,107,0.0,0.0,76,0.00,CLR,FEW,0.00,0.0,WeatherDisplay:10.37,2013-03-23 11:01:00,
2013-03-23 04:03:00,45.7,38.6,29.90,ESE,107,0.0,0.0,76,0.00,CLR,FEW,0.00,0.0,WeatherDisplay:10.37,2013-03-23 11:03:00,
2013-03-23 04:05:00,45.7,38.6,29.90,ESE,107,0.0,0.0,76,0.00,CLR,FEW,0.00,0.0,WeatherDisplay:10.37,2013-03-23 11:05:00,
2013-03-23 04:07:00,45.7,38.6,29.90,ESE,107,0.0,0.0,76,0.00,CLR,FEW,0.00,0.0,WeatherDisplay:10.37,2013-03-23 11:07:00,
2013-03-23 04:09:00,45.7,38.6,29.90,ESE,107,0.0,0.0,76,0.00,CLR,FEW,0.00,0.0,WeatherDisplay:10.37,2013-03-23 11:09:00,
2013-03-23 04:10:00,45.7,38.6,29.90,ESE,107,0.0,0.0,76,0.00,CLR,FEW,0.00,0.0,WeatherDisplay:10.37,2013-03-23 11:10:00,
2013-03-23 04:13:00,45.7,38.6,29.90,ESE,107,0.0,0.0,76,0.00,CLR,FEW,0.00,0.0,WeatherDisplay:10.37,2013-03-23 11:13:00,
2013-03-23 04:14:00,45.5,38.4,29.90,ESE,107,0.0,0.0,76,0.00,CLR,FEW,0.00,0.0,WeatherDisplay:10.37,2013-03-23 11:14:00,
2013-03-23 04:15:00,45.5,38.4,29.90,ESE,107,0.0,0.0,76,0.00,CLR,FEW,0.00,0.0,WeatherDisplay:10.37,2013-03-23 11:15:00,
2013-03-23 04:19:00,45.4,37.9,29.90,ESE,107,0.0,0.0,75,0.00,CLR,FEW,0.00,0.0,WeatherDisplay:10.37,2013-03-23 11:19:00,
2013-03-23 04:20:00,45.4,37.9,29.90,ESE,107,0.0,0.0,75,0.00,CLR,FEW,0.00,0.0,WeatherDisplay:10.37,2013-03-23 11:20:00,
2013-03-23 04:22:00,45.4,37.9,29.90,ESE,107,0.0,0.0,75,0.00,CLR,FEW,0.00,0.0,WeatherDisplay:10.37,2013-03-23 11:22:00,
2013-03-23 04:25:00,45.2,37.1,29.90,ESE,107,0.0,0.0,73,0.00,CLR,FEW,0.00,0.0,WeatherDisplay:10.37,2013-03-23 11:25:00,
2013-03-23 04:26:00,45.2,36.7,29.90,ESE,107,0.0,0.0,72,0.00,CLR,FEW,0.00,0.0,WeatherDisplay:10.37,2013-03-23 11:26:00,
2013-03-23 04:27:00,45.2,36.4,29.90,ESE,107,0.0,0.0,71,0.00,CLR,FEW,0.00,0.0,WeatherDisplay:10.37,2013-03-23 11:27:00,
2013-03-23 04:28:00,45.2,36.4,29.90,ESE,107,0.0,0.0,71,0.00,CLR,FEW,0.00,0.0,WeatherDisplay:10.37,2013-03-23 11:28:00,
2013-03-23 04:32:00,45.4,35.8,29.90,ESE,107,0.0,0.0,69,0.00,CLR,FEW,0.00,0.0,WeatherDisplay:10.37,2013-03-23 11:32:00,
2013-03-23 04:33:00,45.4,35.5,29.90,ESE,107,0.0,0.0,68,0.00,CLR,FEW,0.00,0.0,WeatherDisplay:10.37,2013-03-23 11:33:00,
2013-03-23 04:35:00,45.5,35.2,29.90,ESE,107,0.0,0.0,67,0.00,CLR,FEW,0.00,0.0,WeatherDisplay:10.37,2013-03-23 11:35:00,
2013-03-23 04:37:00,45.5,35.2,29.90,ESE,107,0.0,0.0,67,0.00,CLR,FEW,0.00,0.0,WeatherDisplay:10.37,2013-03-23 11:37:00,
2013-03-23 04:38:00,45.5,35.2,29.90,ESE,107,0.0,0.0,67,0.00,CLR,FEW,0.00,0.0,WeatherDisplay:10.37,2013-03-23 11:38:00,
2013-03-23 04:39:00,45.5,35.2,29.90,ESE,107,0.0,0.0,67,0.00,CLR,FEW,0.00,0.0,WeatherDisplay:10.37,2013-03-23 11:39:00,
2013-03-23 04:40:00,45.4,35.1,29.90,ESE,107,0.0,0.0,67,0.00,CLR,FEW,0.00,0.0,WeatherDisplay:10.37,2013-03-23 11:40:00,
2013-03-23 04:44:00,45.4,35.1,29.90,ESE,107,0.0,0.0,67,0.00,CLR,FEW,0.00,0.0,WeatherDisplay:10.37,2013-03-23 11:44:00,
2013-03-23 04:45:00,45.4,35.1,29.90,ESE,107,0.0,0.0,67,0.00,CLR,FEW,0.00,0.0,WeatherDisplay:10.37,2013-03-23 11:45:00,
2013-03-23 04:49:00,45.5,34.8,29.90,ESE,107,0.0,0.0,66,0.00,CLR,FEW,0.00,0.0,WeatherDisplay:10.37,2013-03-23 11:49:00,
2013-03-23 04:50:00,45.5,34.8,29.90,ESE,107,0.0,0.0,66,0.00,CLR,FEW,0.00,0.0,WeatherDisplay:10.37,2013-03-23 11:50:00,
2013-03-23 04:51:00,45.5,34.4,29.90,ESE,107,0.0,0.0,65,0.00,CLR,FEW,0.00,0.0,WeatherDisplay:10.37,2013-03-23 11:51:00,
2013-03-23 04:54:00,45.7,34.6,29.90,ESE,107,0.0,0.0,65,0.00,CLR,FEW,0.00,0.0,WeatherDisplay:10.37,2013-03-23 11:54:00,
2013-03-23 04:57:00,45.8,34.3,29.90,ESE,107,0.0,0.0,64,0.00,CLR,FEW,0.00,0.0,WeatherDisplay:10.37,2013-03-23 11:57:00,
2013-03-23 05:00:00,46.1,34.2,29.90,ESE,107,0.0,0.0,63,0.00,CLR,FEW,0.00,0.0,WeatherDisplay:10.37,2013-03-23 12:00:00,
2013-03-23 05:02:00,46.1,33.8,29.91,ESE,107,0.0,0.0,62,0.00,CLR,FEW,0.00,0.0,WeatherDisplay:10.37,2013-03-23 12:02:00,
2013-03-23 05:05:00,46.2,34.3,29.91,ESE,107,0.0,0.0,63,0.00,CLR,FEW,0.00,0.0,WeatherDisplay:10.37,2013-03-23 12:05:00,
2013-03-23 05:07:00,46.2,34.3,29.91,ESE,107,0.0,0.0,63,0.00,CLR,FEW,0.00,0.0,WeatherDisplay:10.37,2013-03-23 12:07:00,
2013-03-23 05:08:00,46.1,34.2,29.91,ESE,107,0.0,0.0,63,0.00,CLR,FEW,0.00,0.0,WeatherDisplay:10.37,2013-03-23 12:08:00,
2013-03-23 05:10:00,46.0,34.1,29.91,ESE,107,0.0,0.0,63,0.00,CLR,FEW,0.00,0.0,WeatherDisplay:10.37,2013-03-23 12:10:00,
2013-03-23 05:12:00,45.8,34.7,29.91,ESE,107,0.0,0.0,65,0.00,CLR,FEW,0.00,0.0,WeatherDisplay:10.37,2013-03-23 12:12:00,
2013-03-23 05:13:00,45.8,34.7,29.91,ESE,107,0.0,0.0,65,0.00,CLR,FEW,0.00,0.0,WeatherDisplay:10.37,2013-03-23 12:13:00,
2013-03-23 05:15:00,45.8,35.1,29.91,ESE,107,0.0,0.0,66,0.00,CLR,FEW,0.00,0.0,WeatherDisplay:10.37,2013-03-23 12:15:00,
2013-03-23 05:16:00,45.8,35.5,29.92,ESE,107,0.0,0.0,67,0.00,CLR,FEW,0.00,0.0,WeatherDisplay:10.37,2013-03-23 12:16:00,
2013-03-23 05:18:00,46.0,36.0,29.92,ESE,107,0.0,0.0,68,0.00,CLR,FEW,0.00,0.0,WeatherDisplay:10.37,2013-03-23 12:18:00,
2013-03-23 05:19:00,46.0,36.0,29.92,ESE,107,0.0,0.0,68,0.00,CLR,FEW,0.00,0.0,WeatherDisplay:10.37,2013-03-23 12:19:00,
2013-03-23 05:21:00,46.0,36.4,29.92,ESE,107,0.0,0.0,69,0.00,CLR,FEW,0.00,0.0,WeatherDisplay:10.37,2013-03-23 12:21:00,
2013-03-23 05:22:00,46.1,36.9,29.92,ESE,107,0.0,0.0,70,0.00,CLR,FEW,0.00,0.0,WeatherDisplay:10.37,2013-03-23 12:22:00,
2013-03-23 05:24:00,46.0,36.8,29.92,ESE,107,0.0,0.0,70,0.00,CLR,FEW,0.00,0.0,WeatherDisplay:10.37,2013-03-23 12:24:00,
2013-03-23 05:27:00,45.8,36.6,29.92,ESE,107,0.0,0.0,70,0.00,CLR,FEW,0.00,0.0,WeatherDisplay:10.37,2013-03-23 12:27:00,
2013-03-23 05:29:00,45.8,36.6,29.92,ESE,107,0.0,0.0,70,0.00,CLR,FEW,0.00,0.0,WeatherDisplay:10.37,2013-03-23 12:29:00,
2013-03-23 05:32:00,46.0,37.1,29.93,ESE,107,0.0,0.0,71,0.00,CLR,FEW,0.00,0.0,WeatherDisplay:10.37,2013-03-23 12:32:00,
2013-03-23 05:34:00,46.1,37.2,29.93,ESE,107,0.0,0.0,71,0.00,CLR,FEW,0.00,0.0,WeatherDisplay:10.37,2013-03-23 12:34:00,
2013-03-23 05:36:00,46.1,37.2,29.93,ESE,107,0.0,0.0,71,0.00,CLR,FEW,0.00,0.0,WeatherDisplay:10.37,2013-03-23 12:36:00,
2013-03-23 05:37:00,46.1,37.2,29.93,ESE,107,0.0,0.0,71,0.00,CLR,FEW,0.00,0.0,WeatherDisplay:10.37,2013-03-23 12:37:00,
2013-03-23 05:38:00,46.1,37.2,29.93,ESE,107,0.0,0.0,71,0.00,CLR,FEW,0.00,0.0,WeatherDisplay:10.37,2013-03-23 12:38:00,
2013-03-23 05:40:00,46.1,37.2,29.93,ESE,107,0.0,0.0,71,0.00,CLR,FEW,0.00,0.0,WeatherDisplay:10.37,2013-03-23 12:40:00,
2013-03-23 05:41:00,46.0,37.1,29.93,ESE,107,0.0,0.0,71,0.00,CLR,FEW,0.00,0.0,WeatherDisplay:10.37,2013-03-23 12:41:00,
2013-03-23 05:42:00,45.7,36.5,29.93,ESE,107,0.0,0.0,70,0.00,CLR,FEW,0.00,0.0,WeatherDisplay:10.37,2013-03-23 12:42:00,
2013-03-23 05:44:00,45.2,36.0,29.93,ESE,107,0.0,0.0,70,0.00,CLR,FEW,0.00,0.0,WeatherDisplay:10.37,2013-03-23 12:44:00,
2013-03-23 05:45:00,45.1,36.3,29.93,ESE,107,0.0,0.0,71,0.00,CLR,FEW,0.00,0.0,WeatherDisplay:10.37,2013-03-23 12:45:00,
2013-03-23 05:46:00,44.6,35.8,29.93,ESE,107,0.0,0.0,71,0.00,CLR,FEW,0.00,0.0,WeatherDisplay:10.37,2013-03-23 12:46:00,
2013-03-23 05:48:00,44.5,36.0,29.93,ESE,107,0.0,0.0,72,0.00,CLR,FEW,0.00,0.0,WeatherDisplay:10.37,2013-03-23 12:48:00,
2013-03-23 05:49:00,44.5,36.4,29.93,ESE,107,0.0,0.0,73,0.00,CLR,FEW,0.00,0.0,WeatherDisplay:10.37,2013-03-23 12:49:00,
2013-03-23 05:50:00,44.5,36.4,29.93,ESE,107,0.0,0.0,73,0.00,CLR,FEW,0.00,0.0,WeatherDisplay:10.37,2013-03-23 12:50:00,
2013-03-23 05:51:00,44.9,37.1,29.93,ESE,104,0.2,0.0,74,0.00,CLR,FEW,0.00,0.0,WeatherDisplay:10.37,2013-03-23 12:51:00,
2013-03-23 05:53:00,44.9,37.1,29.93,East,101,0.0,0.0,74,0.00,CLR,FEW,0.00,0.0,WeatherDisplay:10.37,2013-03-23 12:53:00,
2013-03-23 05:55:00,44.8,37.4,29.93,East,101,0.0,0.0,75,0.00,CLR,FEW,0.00,0.0,WeatherDisplay:10.37,2013-03-23 12:55:00,
2013-03-23 05:57:00,44.6,37.2,29.93,East,87,0.0,0.0,75,0.00,CLR,FEW,0.00,0.0,WeatherDisplay:10.37,2013-03-23 12:57:00,
2013-03-23 05:58:00,44.6,37.2,29.93,East,86,0.0,0.0,75,0.00,CLR,FEW,0.00,0.0,WeatherDisplay:10.37,2013-03-23 12:58:00,
2013-03-23 06:00:00,44.6,37.8,29.93,East,86,0.0,0.0,77,0.00,CLR,FEW,0.00,0.0,WeatherDisplay:10.37,2013-03-23 13:00:00,
2013-03-23 06:02:00,44.3,37.2,29.92,East,87,0.0,0.0,76,0.00,CLR,FEW,0.00,0.0,WeatherDisplay:10.37,2013-03-23 13:02:00,
2013-03-23 06:03:00,44.2,37.1,29.92,East,87,0.0,0.0,76,0.00,CLR,FEW,0.00,0.0,WeatherDisplay:10.37,2013-03-23 13:03:00,
2013-03-23 06:04:00,44.1,37.3,29.92,East,87,0.0,0.0,77,0.00,CLR,FEW,0.00,0.0,WeatherDisplay:10.37,2013-03-23 13:04:00,
2013-03-23 06:07:00,44.1,37.7,29.92,East,86,0.0,0.0,78,0.00,CLR,FEW,0.00,0.0,WeatherDisplay:10.37,2013-03-23 13:07:00,
2013-03-23 06:08:00,44.1,37.7,29.92,East,87,0.0,0.0,78,0.00,CLR,FEW,0.00,0.0,WeatherDisplay:10.37,2013-03-23 13:08:00,
2013-03-23 06:09:00,44.1,38.0,29.92,East,87,0.0,0.0,79,0.00,CLR,FEW,0.00,0.0,WeatherDisplay:10.37,2013-03-23 13:09:00,
2013-03-23 06:12:00,44.3,38.2,29.92,East,86,0.0,0.0,79,0.00,CLR,FEW,0.00,0.0,WeatherDisplay:10.37,2013-03-23 13:12:00,
2013-03-23 06:13:00,44.5,38.4,29.92,East,87,0.0,0.0,79,0.00,CLR,FEW,0.00,0.0,WeatherDisplay:10.37,2013-03-23 13:13:00,
2013-03-23 06:14:00,44.3,38.2,29.92,East,87,0.0,0.0,79,0.00,CLR,FEW,0.00,0.0,WeatherDisplay:10.37,2013-03-23 13:14:00,
2013-03-23 06:15:00,44.3,38.2,29.92,East,87,0.0,0.0,79,0.00,CLR,FEW,0.00,0.0,WeatherDisplay:10.37,2013-03-23 13:15:00,
2013-03-23 06:18:00,43.6,37.5,29.93,East,87,0.0,0.0,79,0.00,OVC,FEW,0.00,0.0,WeatherDisplay:10.37,2013-03-23 13:18:00,
2013-03-23 06:19:00,43.6,37.8,29.93,East,87,0.0,0.0,80,0.00,OVC,FEW,0.00,0.0,WeatherDisplay:10.37,2013-03-23 13:19:00,
2013-03-23 06:20:00,43.6,37.8,29.93,East,86,0.0,0.0,80,0.00,OVC,FEW,0.00,0.0,WeatherDisplay:10.37,2013-03-23 13:20:00,
2013-03-23 06:23:00,43.9,38.4,29.93,East,87,0.0,0.0,81,0.00,OVC,FEW,0.00,0.0,WeatherDisplay:10.37,2013-03-23 13:23:00,
2013-03-23 06:24:00,44.1,38.6,29.93,East,87,0.0,0.0,81,0.00,OVC,FEW,0.00,0.0,WeatherDisplay:10.37,2013-03-23 13:24:00,
2013-03-23 06:25:00,44.2,38.7,29.93,East,87,0.0,0.0,81,0.00,OVC,FEW,0.00,0.0,WeatherDisplay:10.37,2013-03-23 13:25:00,
2013-03-23 06:28:00,44.3,38.5,29.93,East,87,0.0,0.0,80,0.00,OVC,FEW,0.00,0.0,WeatherDisplay:10.37,2013-03-23 13:28:00,
2013-03-23 06:29:00,44.3,38.2,29.93,East,87,0.0,0.0,79,0.00,OVC,FEW,0.00,0.0,WeatherDisplay:10.37,2013-03-23 13:29:00,
2013-03-23 06:30:00,44.1,38.0,29.92,East,86,0.0,0.0,79,0.00,OVC,FEW,0.00,0.0,WeatherDisplay:10.37,2013-03-23 13:30:00,
2013-03-23 06:31:00,44.1,38.0,29.92,East,87,0.0,0.0,79,0.00,OVC,FEW,0.00,0.0,WeatherDisplay:10.37,2013-03-23 13:31:00,
2013-03-23 06:33:00,43.8,37.7,29.92,East,86,0.0,0.0,79,0.00,OVC,FEW,0.00,0.0,WeatherDisplay:10.37,2013-03-23 13:33:00,
2013-03-23 06:34:00,43.6,37.2,29.92,East,86,0.0,0.0,78,0.00,OVC,FEW,0.00,0.0,WeatherDisplay:10.37,2013-03-23 13:34:00,
2013-03-23 06:36:00,43.5,37.1,29.92,East,86,0.0,0.0,78,0.00,OVC,FEW,0.00,0.0,WeatherDisplay:10.37,2013-03-23 13:36:00,
2013-03-23 06:37:00,43.5,37.1,29.92,East,86,0.0,0.0,78,0.00,OVC,FEW,0.00,0.0,WeatherDisplay:10.37,2013-03-23 13:37:00,
2013-03-23 06:39:00,43.5,37.1,29.92,East,86,0.0,0.0,78,0.00,OVC,FEW,0.00,0.0,WeatherDisplay:10.37,2013-03-23 13:39:00,
2013-03-23 06:41:00,43.5,36.8,29.92,East,86,0.0,0.0,77,0.00,OVC,FEW,0.00,0.0,WeatherDisplay:10.37,2013-03-23 13:41:00,
2013-03-23 06:42:00,43.5,36.8,29.92,East,86,0.0,0.0,77,0.00,OVC,FEW,0.00,0.0,WeatherDisplay:10.37,2013-03-23 13:42:00,
2013-03-23 06:45:00,43.6,36.9,29.92,East,86,0.0,0.0,77,0.00,OVC,FEW,0.00,0.0,WeatherDisplay:10.37,2013-03-23 13:45:00,
2013-03-23 06:46:00,43.6,36.5,29.93,NE,51,0.0,0.0,76,0.00,OVC,FEW,0.00,0.0,WeatherDisplay:10.37,2013-03-23 13:46:00,
2013-03-23 06:47:00,43.6,36.5,29.93,NE,51,0.0,0.0,76,0.00,OVC,FEW,0.00,0.0,WeatherDisplay:10.37,2013-03-23 13:47:00,
2013-03-23 06:51:00,43.9,36.5,29.93,NE,51,0.0,0.0,75,0.00,OVC,FEW,0.00,5.3,WeatherDisplay:10.37,2013-03-23 13:51:00,
2013-03-23 06:52:00,44.1,36.3,29.93,NE,51,0.0,0.0,74,0.00,OVC,FEW,0.00,7.3,WeatherDisplay:10.37,2013-03-23 13:52:00,
2013-03-23 06:56:00,44.3,35.8,29.93,NE,51,0.0,0.0,72,0.00,CLR,FEW,0.00,9.4,WeatherDisplay:10.37,2013-03-23 13:56:00,
2013-03-23 06:57:00,44.3,35.5,29.93,NE,51,0.0,0.0,71,0.00,CLR,FEW,0.00,9.4,WeatherDisplay:10.37,2013-03-23 13:57:00,
2013-03-23 07:02:00,44.3,33.3,29.93,NE,51,0.0,0.0,65,0.00,SCT,FEW,0.00,14.7,WeatherDisplay:10.37,2013-03-23 14:02:00,
2013-03-23 07:03:00,44.5,33.5,29.93,NE,51,0.0,0.0,65,0.00,SCT,FEW,0.00,14.7,WeatherDisplay:10.37,2013-03-23 14:03:00,
2013-03-23 07:07:00,44.3,33.3,29.93,East,80,0.0,0.0,65,0.00,SCT,FEW,0.00,18.9,WeatherDisplay:10.37,2013-03-23 14:07:00,
2013-03-23 07:08:00,44.3,33.3,29.93,East,80,0.0,0.0,65,0.00,SCT,FEW,0.00,18.9,WeatherDisplay:10.37,2013-03-23 14:08:00,
2013-03-23 07:09:00,44.2,33.2,29.93,East,80,0.0,0.0,65,0.00,SCT,FEW,0.00,19.9,WeatherDisplay:10.37,2013-03-23 14:09:00,
2013-03-23 07:10:00,44.2,33.2,29.93,East,80,0.0,0.0,65,0.00,SCT,FEW,0.00,19.9,WeatherDisplay:10.37,2013-03-23 14:10:00,
2013-03-23 07:12:00,44.2,33.6,29.93,East,80,0.0,0.0,66,0.00,BKN,FEW,0.00,24.1,WeatherDisplay:10.37,2013-03-23 14:12:00,
2013-03-23 07:14:00,44.3,33.3,29.93,East,80,0.0,0.0,65,0.00,SCT,FEW,0.00,27.3,WeatherDisplay:10.37,2013-03-23 14:14:00,
2013-03-23 07:15:00,44.5,33.5,29.93,East,80,0.0,0.0,65,0.00,SCT,FEW,0.00,29.4,WeatherDisplay:10.37,2013-03-23 14:15:00,
2013-03-23 07:18:00,44.8,33.4,29.94,East,80,0.0,0.0,64,0.00,SCT,FEW,0.00,33.6,WeatherDisplay:10.37,2013-03-23 14:18:00,
2013-03-23 07:19:00,44.9,33.1,29.94,East,82,0.0,0.0,63,0.00,SCT,FEW,0.00,34.6,WeatherDisplay:10.37,2013-03-23 14:19:00,
2013-03-23 07:20:00,44.9,33.1,29.94,East,82,0.0,0.0,63,0.00,SCT,FEW,0.00,34.6,WeatherDisplay:10.37,2013-03-23 14:20:00,
2013-03-23 07:23:00,44.6,32.4,29.94,East,82,0.1,1.2,62,0.00,SCT,FEW,0.00,36.8,WeatherDisplay:10.37,2013-03-23 14:23:00,
2013-03-23 07:24:00,44.5,32.3,29.94,East,87,1.5,1.5,62,0.00,BKN,FEW,0.00,34.6,WeatherDisplay:10.37,2013-03-23 14:24:00,
2013-03-23 07:25:00,44.5,32.3,29.94,East,81,1.0,0.0,62,0.00,BKN,FEW,0.00,34.6,WeatherDisplay:10.37,2013-03-23 14:25:00,
2013-03-23 07:28:00,44.9,30.1,29.94,East,90,0.0,0.0,56,0.00,SCT,FEW,0.00,49.4,WeatherDisplay:10.37,2013-03-23 14:28:00,
2013-03-23 07:29:00,45.4,30.2,29.94,East,90,0.0,0.0,55,0.00,SCT,FEW,0.00,48.3,WeatherDisplay:10.37,2013-03-23 14:29:00,
2013-03-23 07:30:00,45.4,30.2,29.94,East,90,0.0,0.0,55,0.00,SCT,FEW,0.00,49.4,WeatherDisplay:10.37,2013-03-23 14:30:00,
2013-03-23 07:31:00,45.5,30.3,29.93,East,90,0.0,0.0,55,0.00,SCT,FEW,0.00,46.2,WeatherDisplay:10.37,2013-03-23 14:31:00,
2013-03-23 07:34:00,45.8,29.6,29.93,East,92,0.0,0.0,53,0.00,BKN,FEW,0.00,48.3,WeatherDisplay:10.37,2013-03-23 14:34:00,
2013-03-23 07:35:00,45.8,29.6,29.93,East,92,0.0,0.0,53,0.00,BKN,FEW,0.00,51.5,WeatherDisplay:10.37,2013-03-23 14:35:00,
2013-03-23 07:39:00,46.0,30.7,29.93,East,92,0.0,0.0,55,0.00,SCT,FEW,0.00,72.5,WeatherDisplay:10.37,2013-03-23 14:39:00,
2013-03-23 07:40:00,46.1,31.3,29.93,East,92,0.1,0.0,56,0.00,SCT,FEW,0.00,80.8,WeatherDisplay:10.37,2013-03-23 14:40:00,
2013-03-23 07:41:00,46.2,31.4,29.93,East,92,0.1,1.2,56,0.00,SCT,FEW,0.00,80.8,WeatherDisplay:10.37,2013-03-23 14:41:00,
2013-03-23 07:43:00,46.4,30.6,29.93,East,92,0.1,1.2,54,0.00,SCT,FEW,0.00,66.2,WeatherDisplay:10.37,2013-03-23 14:43:00,
2013-03-23 07:44:00,46.5,30.7,29.93,East,92,0.0,1.2,54,0.00,BKN,FEW,0.00,56.7,WeatherDisplay:10.37,2013-03-23 14:44:00,
2013-03-23 07:46:00,46.7,31.4,29.94,East,92,0.0,0.0,55,0.00,BKN,FEW,0.00,51.5,WeatherDisplay:10.37,2013-03-23 14:46:00,
2013-03-23 07:48:00,46.8,30.1,29.94,East,92,0.0,0.0,52,0.00,BKN,FEW,0.00,51.5,WeatherDisplay:10.37,2013-03-23 14:48:00,
2013-03-23 07:50:00,46.8,30.1,29.94,East,92,0.0,0.0,52,0.00,BKN,FEW,0.00,51.5,WeatherDisplay:10.37,2013-03-23 14:50:00,
2013-03-23 07:51:00,47.0,28.8,29.94,East,92,0.0,0.0,49,0.00,BKN,FEW,0.00,55.6,WeatherDisplay:10.37,2013-03-23 14:51:00,
2013-03-23 07:52:00,47.1,28.9,29.94,East,92,0.0,0.0,49,0.00,BKN,FEW,0.00,55.6,WeatherDisplay:10.37,2013-03-23 14:52:00,
2013-03-23 07:53:00,47.1,29.4,29.94,East,92,0.0,0.0,50,0.00,BKN,FEW,0.00,55.6,WeatherDisplay:10.37,2013-03-23 14:53:00,
2013-03-23 07:57:00,47.1,29.9,29.94,East,92,0.0,0.0,51,0.00,BKN,FEW,0.00,65.1,WeatherDisplay:10.37,2013-03-23 14:57:00,
2013-03-23 07:58:00,47.3,30.1,29.94,East,92,0.0,0.0,51,0.00,BKN,FEW,0.00,79.8,WeatherDisplay:10.37,2013-03-23 14:58:00,
2013-03-23 08:00:00,47.3,31.0,29.95,East,92,0.0,0.0,53,0.00,BKN,FEW,0.00,116.5,WeatherDisplay:10.37,2013-03-23 15:00:00,
2013-03-23 08:02:00,47.4,30.2,29.95,East,92,0.0,0.0,51,0.00,SCT,FEW,0.00,165.9,WeatherDisplay:10.37,2013-03-23 15:02:00,
2013-03-23 08:03:00,47.6,31.3,29.95,East,92,0.0,0.0,53,0.00,SCT,FEW,0.00,171.2,WeatherDisplay:10.37,2013-03-23 15:03:00,
2013-03-23 08:04:00,47.6,32.7,29.95,East,92,0.0,0.0,56,0.00,FEW,,0.00,173.3,WeatherDisplay:10.37,2013-03-23 15:04:00,
2013-03-23 08:08:00,47.9,34.7,29.95,East,92,0.0,0.0,60,0.00,CLR,FEW,0.00,184.8,WeatherDisplay:10.37,2013-03-23 15:08:00,
2013-03-23 08:09:00,47.9,34.7,29.95,East,92,0.0,0.0,60,0.00,CLR,FEW,0.00,186.9,WeatherDisplay:10.37,2013-03-23 15:09:00,
2013-03-23 08:13:00,47.9,35.5,29.95,East,92,0.0,0.0,62,0.00,CLR,FEW,0.00,199.5,WeatherDisplay:10.37,2013-03-23 15:13:00,
2013-03-23 08:14:00,47.9,35.5,29.95,East,92,0.0,0.0,62,0.00,CLR,FEW,0.00,202.7,WeatherDisplay:10.37,2013-03-23 15:14:00,
2013-03-23 08:18:00,47.9,35.9,29.96,East,92,0.0,0.0,63,0.00,CLR,FEW,0.00,217.3,WeatherDisplay:10.37,2013-03-23 15:18:00,
2013-03-23 08:19:00,47.7,35.7,29.96,East,92,0.0,0.0,63,0.00,CLR,FEW,0.00,223.7,WeatherDisplay:10.37,2013-03-23 15:19:00,
2013-03-23 08:20:00,47.7,35.7,29.96,East,92,0.0,0.0,63,0.00,CLR,FEW,0.00,223.7,WeatherDisplay:10.37,2013-03-23 15:20:00,
2013-03-23 08:21:00,47.7,35.7,29.96,East,92,0.0,0.0,63,0.00,CLR,FEW,0.00,228.9,WeatherDisplay:10.37,2013-03-23 15:21:00,
2013-03-23 08:24:00,47.7,35.7,29.96,East,92,0.0,0.0,63,0.00,CLR,FEW,0.00,240.4,WeatherDisplay:10.37,2013-03-23 15:24:00,
2013-03-23 08:25:00,47.6,34.8,29.96,East,92,0.0,0.0,61,0.00,CLR,FEW,0.00,241.5,WeatherDisplay:10.37,2013-03-23 15:25:00,
2013-03-23 08:27:00,47.6,34.8,29.96,East,92,0.0,0.0,61,0.00,CLR,FEW,0.00,248.8,WeatherDisplay:10.37,2013-03-23 15:27:00,
2013-03-23 08:30:00,47.6,34.4,29.96,East,92,0.0,0.0,60,0.00,CLR,FEW,0.00,262.5,WeatherDisplay:10.37,2013-03-23 15:30:00,
2013-03-23 08:32:00,47.9,34.7,29.96,East,92,0.0,0.0,60,0.00,CLR,FEW,0.00,270.9,WeatherDisplay:10.37,2013-03-23 15:32:00,
2013-03-23 08:35:00,48.0,34.8,29.96,East,92,0.0,0.0,60,0.00,CLR,FEW,0.00,282.4,WeatherDisplay:10.37,2013-03-23 15:35:00,
2013-03-23 08:36:00,48.2,35.0,29.96,East,92,0.0,0.0,60,0.00,CLR,FEW,0.00,285.6,WeatherDisplay:10.37,2013-03-23 15:36:00,
2013-03-23 08:37:00,48.3,35.5,29.96,East,92,0.0,0.0,61,0.00,CLR,FEW,0.00,287.7,WeatherDisplay:10.37,2013-03-23 15:37:00,
2013-03-23 08:38:00,48.5,35.7,29.96,East,92,0.0,0.0,61,0.00,CLR,FEW,0.00,291.9,WeatherDisplay:10.37,2013-03-23 15:38:00,
2013-03-23 08:40:00,48.6,35.7,29.96,East,92,0.0,0.0,61,0.00,CLR,FEW,0.00,297.1,WeatherDisplay:10.37,2013-03-23 15:40:00,
2013-03-23 08:41:00,48.8,35.9,29.96,East,92,0.0,0.0,61,0.00,CLR,FEW,0.00,304.5,WeatherDisplay:10.37,2013-03-23 15:41:00,
2013-03-23 08:44:00,49.2,36.7,29.96,East,92,0.0,0.0,62,0.00,CLR,FEW,0.00,316.1,WeatherDisplay:10.37,2013-03-23 15:44:00,
2013-03-23 08:45:00,49.4,37.3,29.96,East,92,0.0,0.0,63,0.00,CLR,FEW,0.00,319.2,WeatherDisplay:10.37,2013-03-23 15:45:00,
2013-03-23 08:46:00,49.5,37.4,29.96,East,92,0.0,0.0,63,0.00,CLR,FEW,0.00,321.3,WeatherDisplay:10.37,2013-03-23 15:46:00,
2013-03-23 08:47:00,49.6,37.9,29.96,East,92,0.0,0.0,64,0.00,CLR,FEW,0.00,324.4,WeatherDisplay:10.37,2013-03-23 15:47:00,
2013-03-23 08:50:00,49.8,37.7,29.96,East,92,0.0,0.0,63,0.00,CLR,FEW,0.00,336.0,WeatherDisplay:10.37,2013-03-23 15:50:00,
2013-03-23 08:53:00,50.4,38.3,29.96,East,92,0.0,0.0,63,0.00,CLR,FEW,0.00,346.5,WeatherDisplay:10.37,2013-03-23 15:53:00,
2013-03-23 08:55:00,50.5,38.3,29.96,East,92,0.0,0.0,63,0.00,CLR,FEW,0.00,352.8,WeatherDisplay:10.37,2013-03-23 15:55:00,
2013-03-23 08:58:00,50.8,38.2,29.96,East,92,0.0,0.0,62,0.00,CLR,FEW,0.00,362.3,WeatherDisplay:10.37,2013-03-23 15:58:00,
2013-03-23 09:00:00,51.0,38.4,29.96,East,92,0.0,0.0,62,0.00,CLR,FEW,0.00,370.6,WeatherDisplay:10.37,2013-03-23 16:00:00,
2013-03-23 09:03:00,51.3,39.1,29.97,East,92,0.0,0.0,63,0.00,CLR,FEW,0.00,380.1,WeatherDisplay:10.37,2013-03-23 16:03:00,
2013-03-23 09:05:00,51.6,40.6,29.97,East,93,0.0,0.0,66,0.00,CLR,FEW,0.00,391.6,WeatherDisplay:10.37,2013-03-23 16:05:00,
2013-03-23 09:08:00,51.7,40.3,29.97,East,93,0.0,0.0,65,0.00,CLR,FEW,0.00,399.0,WeatherDisplay:10.37,2013-03-23 16:08:00,
2013-03-23 09:12:00,51.7,39.5,29.97,East,93,0.0,0.0,63,0.00,CLR,FEW,0.00,413.7,WeatherDisplay:10.37,2013-03-23 16:12:00,
2013-03-23 09:13:00,51.7,39.5,29.97,East,93,0.0,0.0,63,0.00,CLR,FEW,0.00,416.9,WeatherDisplay:10.37,2013-03-23 16:13:00,
2013-03-23 09:18:00,52.0,39.4,29.97,East,93,0.0,0.0,62,0.00,CLR,FEW,0.00,435.8,WeatherDisplay:10.37,2013-03-23 16:18:00,
2013-03-23 09:20:00,52.2,39.6,29.97,SW,236,0.0,0.0,62,0.00,CLR,FEW,0.00,443.1,WeatherDisplay:10.37,2013-03-23 16:20:00,
2013-03-23 09:23:00,52.5,39.8,29.97,SW,236,0.0,0.0,62,0.00,CLR,FEW,0.00,455.7,WeatherDisplay:10.37,2013-03-23 16:23:00,
2013-03-23 09:25:00,52.6,39.9,29.97,SSW,205,0.0,0.0,62,0.00,CLR,FEW,0.00,459.9,WeatherDisplay:10.37,2013-03-23 16:25:00,
2013-03-23 09:28:00,53.2,40.9,29.97,SW,236,0.0,0.0,63,0.00,CLR,FEW,0.00,474.6,WeatherDisplay:10.37,2013-03-23 16:28:00,
2013-03-23 09:29:00,53.5,40.8,29.97,SW,236,0.0,0.0,62,0.00,CLR,FEW,0.00,477.8,WeatherDisplay:10.37,2013-03-23 16:29:00,
2013-03-23 09:30:00,53.4,40.7,29.97,SW,236,0.0,0.0,62,0.00,CLR,FEW,0.00,477.8,WeatherDisplay:10.37,2013-03-23 16:30:00,
2013-03-23 09:33:00,53.9,40.8,29.98,SW,236,0.0,0.0,61,0.00,CLR,FEW,0.00,489.3,WeatherDisplay:10.37,2013-03-23 16:33:00,
2013-03-23 09:35:00,54.1,40.5,29.98,SW,236,0.0,0.0,60,0.00,CLR,FEW,0.00,498.8,WeatherDisplay:10.37,2013-03-23 16:35:00,
2013-03-23 09:36:00,54.2,40.6,29.98,SW,236,0.0,0.0,60,0.00,CLR,FEW,0.00,498.8,WeatherDisplay:10.37,2013-03-23 16:36:00,
2013-03-23 09:39:00,54.4,40.4,29.98,SW,236,0.0,0.0,59,0.00,CLR,FEW,0.00,507.1,WeatherDisplay:10.37,2013-03-23 16:39:00,
2013-03-23 09:40:00,54.5,40.0,29.98,SW,236,0.0,0.0,58,0.00,CLR,FEW,0.00,509.3,WeatherDisplay:10.37,2013-03-23 16:40:00,
2013-03-23 09:42:00,54.5,39.1,29.98,SW,236,0.0,0.0,56,0.00,CLR,FEW,0.00,516.6,WeatherDisplay:10.37,2013-03-23 16:42:00,
2013-03-23 09:44:00,54.7,40.2,29.98,SW,236,0.0,0.0,58,0.00,CLR,FEW,0.00,524.0,WeatherDisplay:10.37,2013-03-23 16:44:00,
2013-03-23 09:45:00,54.8,39.8,29.98,SW,236,0.0,0.0,57,0.00,CLR,FEW,0.00,526.0,WeatherDisplay:10.37,2013-03-23 16:45:00,
2013-03-23 09:47:00,55.0,39.6,29.98,SW,236,0.0,0.0,56,0.00,CLR,FEW,0.00,531.3,WeatherDisplay:10.37,2013-03-23 16:47:00,
2013-03-23 09:50:00,55.1,39.2,29.98,SW,236,0.0,0.0,55,0.00,CLR,FEW,0.00,545.0,WeatherDisplay:10.37,2013-03-23 16:50:00,
2013-03-23 09:53:00,55.4,39.0,29.98,SW,236,0.1,1.2,54,0.00,CLR,FEW,0.00,553.4,WeatherDisplay:10.37,2013-03-23 16:53:00,
2013-03-23 09:55:00,55.6,38.2,29.98,SW,236,0.0,0.0,52,0.00,CLR,FEW,0.00,560.7,WeatherDisplay:10.37,2013-03-23 16:55:00,
2013-03-23 09:58:00,55.7,37.8,29.98,SW,236,0.0,0.0,51,0.00,CLR,FEW,0.00,572.3,WeatherDisplay:10.37,2013-03-23 16:58:00,
2013-03-23 10:00:00,55.9,38.0,29.98,SW,236,0.0,0.0,51,0.00,CLR,FEW,0.00,579.6,WeatherDisplay:10.37,2013-03-23 17:00:00,
2013-03-23 10:01:00,56.0,38.1,29.98,SW,236,0.0,0.0,51,0.00,CLR,FEW,0.00,579.6,WeatherDisplay:10.37,2013-03-23 17:01:00,
2013-03-23 10:03:00,56.2,37.3,29.98,SW,236,0.0,0.0,49,0.00,CLR,FEW,0.00,587.0,WeatherDisplay:10.37,2013-03-23 17:03:00,
2013-03-23 10:05:00,56.3,36.3,29.98,SW,236,0.0,0.0,47,0.00,CLR,FEW,0.00,592.2,WeatherDisplay:10.37,2013-03-23 17:05:00,
2013-03-23 10:06:00,56.5,36.5,29.98,SW,236,0.0,0.0,47,0.00,CLR,FEW,0.00,592.2,WeatherDisplay:10.37,2013-03-23 17:06:00,
2013-03-23 10:09:00,56.7,35.6,29.98,SW,236,0.0,0.0,45,0.00,CLR,FEW,0.00,605.9,WeatherDisplay:10.37,2013-03-23 17:09:00,
2013-03-23 10:11:00,57.0,35.9,29.98,SW,236,0.0,0.0,45,0.00,CLR,FEW,0.00,609.0,WeatherDisplay:10.37,2013-03-23 17:11:00,
2013-03-23 10:12:00,57.3,35.6,29.98,SW,236,0.0,0.0,44,0.00,CLR,FEW,0.00,611.1,WeatherDisplay:10.37,2013-03-23 17:12:00,
2013-03-23 10:14:00,57.6,36.4,29.98,SW,236,0.0,0.0,45,0.00,CLR,FEW,0.00,620.5,WeatherDisplay:10.37,2013-03-23 17:14:00,
2013-03-23 10:15:00,57.6,35.8,29.98,SW,236,0.0,0.0,44,0.00,CLR,FEW,0.00,623.7,WeatherDisplay:10.37,2013-03-23 17:15:00,
2013-03-23 10:16:00,57.8,35.4,29.98,SW,236,0.0,0.0,43,0.00,CLR,FEW,0.00,623.7,WeatherDisplay:10.37,2013-03-23 17:16:00,
2013-03-23 10:17:00,58.0,35.6,29.98,SW,236,0.0,0.0,43,0.00,CLR,FEW,0.00,631.0,WeatherDisplay:10.37,2013-03-23 17:17:00,
2013-03-23 10:20:00,58.3,34.7,29.98,SW,236,0.0,0.0,41,0.00,CLR,FEW,0.00,635.3,WeatherDisplay:10.37,2013-03-23 17:20:00,
2013-03-23 10:22:00,58.6,34.3,29.98,SW,236,0.0,0.0,40,0.00,CLR,FEW,0.00,643.6,WeatherDisplay:10.37,2013-03-23 17:22:00,
2013-03-23 10:25:00,58.7,34.4,29.98,SW,236,0.0,0.0,40,0.00,CLR,FEW,0.00,653.1,WeatherDisplay:10.37,2013-03-23 17:25:00,
2013-03-23 10:27:00,58.9,34.0,29.98,SW,236,0.0,0.0,39,0.00,CLR,FEW,0.00,660.5,WeatherDisplay:10.37,2013-03-23 17:27:00,
2013-03-23 10:28:00,58.9,34.0,29.98,SW,236,0.0,0.0,39,0.00,CLR,FEW,0.00,662.5,WeatherDisplay:10.37,2013-03-23 17:28:00,
2013-03-23 10:30:00,58.9,34.6,29.98,SW,236,0.0,0.0,40,0.00,CLR,FEW,0.00,666.8,WeatherDisplay:10.37,2013-03-23 17:30:00,
2013-03-23 10:32:00,59.2,36.1,29.98,SW,229,0.3,0.0,42,0.00,CLR,FEW,0.00,675.1,WeatherDisplay:10.37,2013-03-23 17:32:00,
2013-03-23 10:33:00,59.3,36.2,29.98,SW,230,0.1,1.2,42,0.00,CLR,FEW,0.00,675.1,WeatherDisplay:10.37,2013-03-23 17:33:00,
2013-03-23 10:35:00,59.6,37.1,29.98,SW,229,0.0,0.0,43,0.00,CLR,FEW,0.00,681.5,WeatherDisplay:10.37,2013-03-23 17:35:00,
2013-03-23 10:37:00,59.9,36.1,29.98,SW,229,0.0,0.0,41,0.00,CLR,FEW,0.00,688.8,WeatherDisplay:10.37,2013-03-23 17:37:00,
2013-03-23 10:38:00,60.1,37.5,29.98,SW,229,0.0,0.0,43,0.00,CLR,FEW,0.00,689.9,WeatherDisplay:10.37,2013-03-23 17:38:00,
2013-03-23 10:39:00,60.1,36.9,29.98,SW,229,0.0,0.0,42,0.00,CLR,FEW,0.00,692.0,WeatherDisplay:10.37,2013-03-23 17:39:00,
2013-03-23 10:40:00,60.1,36.3,29.98,SW,229,0.0,0.0,41,0.00,CLR,FEW,0.00,694.0,WeatherDisplay:10.37,2013-03-23 17:40:00,
2013-03-23 10:42:00,60.4,36.6,29.98,SW,229,0.0,0.0,41,0.00,CLR,FEW,0.00,701.4,WeatherDisplay:10.37,2013-03-23 17:42:00,
2013-03-23 10:44:00,60.5,36.0,29.98,SW,229,0.0,0.0,40,0.00,CLR,FEW,0.00,703.5,WeatherDisplay:10.37,2013-03-23 17:44:00,
2013-03-23 10:45:00,60.5,36.0,29.98,SW,229,0.0,0.0,40,0.00,CLR,FEW,0.00,708.8,WeatherDisplay:10.37,2013-03-23 17:45:00,
2013-03-23 10:47:00,60.9,36.4,29.98,SW,229,0.0,0.0,40,0.00,CLR,FEW,0.00,716.1,WeatherDisplay:10.37,2013-03-23 17:47:00,
2013-03-23 10:50:00,60.9,35.8,29.98,SW,229,0.0,0.0,39,0.00,CLR,FEW,0.00,718.2,WeatherDisplay:10.37,2013-03-23 17:50:00,
2013-03-23 10:51:00,60.9,35.8,29.98,SW,229,0.0,0.0,39,0.00,CLR,FEW,0.00,723.5,WeatherDisplay:10.37,2013-03-23 17:51:00,
2013-03-23 10:55:00,61.2,38.5,29.98,SW,229,0.0,0.0,43,0.00,CLR,FEW,0.00,732.9,WeatherDisplay:10.37,2013-03-23 17:55:00,
2013-03-23 10:58:00,61.6,36.4,29.98,SW,229,0.0,0.0,39,0.00,CLR,FEW,0.00,740.3,WeatherDisplay:10.37,2013-03-23 17:58:00,
2013-03-23 11:00:00,62.0,36.1,29.98,SW,229,0.0,0.0,38,0.00,CLR,FEW,0.00,743.4,WeatherDisplay:10.37,2013-03-23 18:00:00,
2013-03-23 11:03:00,62.1,38.1,29.98,WSW,246,0.0,0.0,41,0.00,CLR,FEW,0.00,752.9,WeatherDisplay:10.37,2013-03-23 18:03:00,
2013-03-23 11:05:00,62.1,38.1,29.98,WSW,246,0.0,0.0,41,0.00,CLR,FEW,0.00,758.1,WeatherDisplay:10.37,2013-03-23 18:05:00,
2013-03-23 11:07:00,62.3,39.5,29.98,WSW,246,0.0,0.0,43,0.00,CLR,FEW,0.00,764.4,WeatherDisplay:10.37,2013-03-23 18:07:00,
2013-03-23 11:09:00,62.6,40.9,29.98,WSW,246,0.0,0.0,45,0.00,CLR,FEW,0.00,764.4,WeatherDisplay:10.37,2013-03-23 18:09:00,
2013-03-23 11:10:00,62.9,39.4,29.98,WSW,244,0.1,1.3,42,0.00,CLR,FEW,0.00,767.5,WeatherDisplay:10.37,2013-03-23 18:10:00,
2013-03-23 11:11:00,62.9,38.2,29.98,WSW,244,0.0,1.2,40,0.00,CLR,FEW,0.00,767.5,WeatherDisplay:10.37,2013-03-23 18:11:00,
2013-03-23 11:12:00,63.1,38.4,29.98,WSW,244,0.0,0.0,40,0.00,CLR,FEW,0.00,773.9,WeatherDisplay:10.37,2013-03-23 18:12:00,
2013-03-23 11:14:00,63.1,39.6,29.98,WSW,244,0.0,0.0,42,0.00,CLR,FEW,0.00,777.0,WeatherDisplay:10.37,2013-03-23 18:14:00,
2013-03-23 11:16:00,63.1,41.4,29.97,WSW,244,0.0,0.0,45,0.00,CLR,FEW,0.00,777.0,WeatherDisplay:10.37,2013-03-23 18:16:00,
2013-03-23 11:17:00,63.2,40.9,29.97,WSW,244,0.0,0.0,44,0.00,CLR,FEW,0.00,781.2,WeatherDisplay:10.37,2013-03-23 18:17:00,
2013-03-23 11:20:00,63.4,40.5,29.97,WSW,238,5.0,5.8,43,0.00,CLR,FEW,0.00,789.6,WeatherDisplay:10.37,2013-03-23 18:20:00,
2013-03-23 11:21:00,63.4,41.1,29.97,SSE,162,0.0,6.9,44,0.00,CLR,FEW,0.00,795.9,WeatherDisplay:10.37,2013-03-23 18:21:00,
2013-03-23 11:22:00,63.5,41.2,29.97,SSW,211,0.0,0.0,44,0.00,CLR,FEW,0.00,795.9,WeatherDisplay:10.37,2013-03-23 18:22:00,
2013-03-23 11:23:00,63.5,41.8,29.97,SSW,211,0.0,1.2,45,0.00,CLR,FEW,0.00,797.0,WeatherDisplay:10.37,2013-03-23 18:23:00,
2013-03-23 11:27:00,63.7,40.8,29.97,SW,229,0.0,0.0,43,0.00,CLR,FEW,0.00,803.3,WeatherDisplay:10.37,2013-03-23 18:27:00,
2013-03-23 11:28:00,63.7,40.2,29.97,SW,229,0.0,0.0,42,0.00,CLR,FEW,0.00,803.3,WeatherDisplay:10.37,2013-03-23 18:28:00,
2013-03-23 11:29:00,63.7,38.9,29.97,SW,229,0.0,0.0,40,0.00,CLR,FEW,0.00,806.4,WeatherDisplay:10.37,2013-03-23 18:29:00,
2013-03-23 11:33:00,63.7,40.2,29.96,SW,236,0.0,0.0,42,0.00,CLR,FEW,0.00,810.6,WeatherDisplay:10.37,2013-03-23 18:33:00,
2013-03-23 11:34:00,64.0,42.8,29.96,SW,236,2.6,7.8,46,0.00,CLR,FEW,0.00,818.0,WeatherDisplay:10.37,2013-03-23 18:34:00,
2013-03-23 11:38:00,64.0,39.2,29.96,SW,236,0.0,0.0,40,0.00,CLR,FEW,0.00,825.3,WeatherDisplay:10.37,2013-03-23 18:38:00,
2013-03-23 11:39:00,64.0,39.2,29.96,SW,236,0.0,0.0,40,0.00,CLR,FEW,0.00,827.4,WeatherDisplay:10.37,2013-03-23 18:39:00,
2013-03-23 11:40:00,64.2,39.4,29.96,SW,236,0.0,1.2,40,0.00,CLR,FEW,0.00,825.3,WeatherDisplay:10.37,2013-03-23 18:40:00,
2013-03-23 11:43:00,64.5,41.5,29.96,SW,236,1.4,7.8,43,0.00,CLR,FEW,0.00,832.6,WeatherDisplay:10.37,2013-03-23 18:43:00,
2013-03-23 11:45:00,64.7,39.2,29.96,SW,236,0.1,1.2,39,0.00,CLR,FEW,0.00,834.8,WeatherDisplay:10.37,2013-03-23 18:45:00,
2013-03-23 11:46:00,64.8,39.9,29.96,SW,236,0.0,0.0,40,0.00,CLR,FEW,0.00,834.8,WeatherDisplay:10.37,2013-03-23 18:46:00,
2013-03-23 11:48:00,65.0,40.1,29.96,SW,236,3.8,5.8,40,0.00,CLR,FEW,0.00,837.9,WeatherDisplay:10.37,2013-03-23 18:48:00,
2013-03-23 11:50:00,65.2,41.5,29.96,SW,221,0.9,3.5,42,0.00,CLR,FEW,0.00,843.1,WeatherDisplay:10.37,2013-03-23 18:50:00,
2013-03-23 11:53:00,65.3,41.0,29.96,SW,236,0.0,2.3,41,0.00,CLR,FEW,0.00,847.4,WeatherDisplay:10.37,2013-03-23 18:53:00,
2013-03-23 11:55:00,65.2,41.5,29.96,WSW,258,3.4,5.8,42,0.00,CLR,FEW,0.00,850.5,WeatherDisplay:10.37,2013-03-23 18:55:00,
2013-03-23 11:58:00,65.0,41.3,29.96,WSW,258,0.0,1.2,42,0.00,CLR,FEW,0.00,849.5,WeatherDisplay:10.37,2013-03-23 18:58:00,
2013-03-23 11:59:00,65.2,40.9,29.96,West,259,0.0,1.2,41,0.00,CLR,FEW,0.00,852.6,WeatherDisplay:10.37,2013-03-23 18:59:00,
2013-03-23 12:00:00,65.2,40.9,29.96,WSW,258,0.0,1.2,41,0.00,CLR,FEW,0.00,852.6,WeatherDisplay:10.37,2013-03-23 19:00:00,
2013-03-23 12:03:00,66.0,39.7,29.97,SW,236,0.5,2.3,38,0.00,CLR,FEW,0.00,856.8,WeatherDisplay:10.37,2013-03-23 19:03:00,
2013-03-23 12:04:00,66.0,39.7,29.97,WSW,240,3.0,5.2,38,0.00,CLR,FEW,0.00,856.8,WeatherDisplay:10.37,2013-03-23 19:04:00,
2013-03-23 12:05:00,66.1,41.1,29.97,WSW,257,1.1,6.9,40,0.00,CLR,FEW,0.00,857.9,WeatherDisplay:10.37,2013-03-23 19:05:00,
2013-03-23 12:09:00,66.9,40.5,29.97,WSW,254,0.0,0.0,38,0.00,CLR,FEW,0.00,862.0,WeatherDisplay:10.37,2013-03-23 19:09:00,
2013-03-23 12:10:00,67.3,42.8,29.97,WSW,254,0.1,1.2,41,0.00,CLR,FEW,0.00,865.2,WeatherDisplay:10.37,2013-03-23 19:10:00,
2013-03-23 12:11:00,67.4,42.9,29.97,WSW,254,0.2,2.6,41,0.00,CLR,FEW,0.00,865.2,WeatherDisplay:10.37,2013-03-23 19:11:00,
2013-03-23 12:14:00,67.4,40.9,29.97,WSW,253,0.0,0.0,38,0.00,CLR,FEW,0.00,869.4,WeatherDisplay:10.37,2013-03-23 19:14:00,
2013-03-23 12:15:00,67.4,40.9,29.96,WSW,253,1.6,5.2,38,0.00,CLR,FEW,0.00,871.5,WeatherDisplay:10.37,2013-03-23 19:15:00,
2013-03-23 12:16:00,67.4,40.9,29.96,WSW,253,2.3,3.9,38,0.00,CLR,FEW,0.00,871.5,WeatherDisplay:10.37,2013-03-23 19:16:00,
2013-03-23 12:20:00,67.4,39.5,29.96,WSW,253,0.0,0.0,36,0.00,CLR,FEW,0.00,871.5,WeatherDisplay:10.37,2013-03-23 19:20:00,
2013-03-23 12:21:00,67.4,41.6,29.96,WSW,253,0.0,1.3,39,0.00,CLR,FEW,0.00,871.5,WeatherDisplay:10.37,2013-03-23 19:21:00,
2013-03-23 12:22:00,67.4,40.9,29.96,WSW,251,2.6,8.1,38,0.00,CLR,FEW,0.00,871.5,WeatherDisplay:10.37,2013-03-23 19:22:00,
2013-03-23 12:23:00,67.6,41.1,29.96,WSW,251,2.6,8.1,38,0.00,CLR,FEW,0.00,872.5,WeatherDisplay:10.37,2013-03-23 19:23:00,
2013-03-23 12:25:00,67.8,39.9,29.96,WSW,250,0.0,0.0,36,0.00,CLR,FEW,0.00,879.9,WeatherDisplay:10.37,2013-03-23 19:25:00,
2013-03-23 12:28:00,68.3,38.8,29.96,WSW,250,0.0,0.0,34,0.00,CLR,FEW,0.00,882.0,WeatherDisplay:10.37,2013-03-23 19:28:00,
2013-03-23 12:30:00,68.4,38.2,29.96,WSW,250,0.0,1.2,33,0.00,CLR,FEW,0.00,886.2,WeatherDisplay:10.37,2013-03-23 19:30:00,
2013-03-23 12:33:00,68.6,36.7,29.96,WSW,250,0.0,6.9,31,0.00,CLR,FEW,0.00,886.2,WeatherDisplay:10.37,2013-03-23 19:33:00,
2013-03-23 12:38:00,69.1,40.3,29.96,WSW,258,0.0,3.5,35,0.00,CLR,FEW,0.00,886.2,WeatherDisplay:10.37,2013-03-23 19:38:00,
2013-03-23 12:39:00,69.1,38.8,29.96,WSW,258,0.1,1.2,33,0.00,CLR,FEW,0.00,889.4,WeatherDisplay:10.37,2013-03-23 19:39:00,
2013-03-23 12:43:00,69.3,38.2,29.96,WSW,240,1.0,6.5,32,0.00,CLR,FEW,0.00,893.5,WeatherDisplay:10.37,2013-03-23 19:43:00,
2013-03-23 12:44:00,69.3,34.8,29.96,WSW,242,1.9,8.1,28,0.00,CLR,FEW,0.00,893.5,WeatherDisplay:10.37,2013-03-23 19:44:00,
2013-03-23 12:49:00,69.8,36.9,29.96,WSW,240,0.1,0.0,30,0.00,CLR,FEW,0.00,896.7,WeatherDisplay:10.37,2013-03-23 19:49:00,
2013-03-23 12:54:00,70.1,35.5,29.96,SSW,200,0.0,0.0,28,0.00,CLR,FEW,0.00,895.6,WeatherDisplay:10.37,2013-03-23 19:54:00,
2013-03-23 12:55:00,70.2,36.5,29.96,SW,228,1.0,0.0,29,0.00,CLR,FEW,0.00,896.7,WeatherDisplay:10.37,2013-03-23 19:55:00,
2013-03-23 12:59:00,70.6,35.9,29.96,WSW,241,0.4,5.8,28,0.00,CLR,FEW,0.00,900.9,WeatherDisplay:10.37,2013-03-23 19:59:00,
2013-03-23 13:00:00,70.6,35.0,29.96,WSW,241,0.0,0.0,27,0.00,CLR,FEW,0.00,900.9,WeatherDisplay:10.37,2013-03-23 20:00:00,
2013-03-23 13:01:00,70.6,34.0,29.96,WSW,241,0.0,1.3,26,0.00,CLR,FEW,0.00,898.8,WeatherDisplay:10.37,2013-03-23 20:01:00,
2013-03-23 13:05:00,70.9,34.3,29.96,WSW,240,0.0,0.0,26,0.00,CLR,FEW,0.00,903.0,WeatherDisplay:10.37,2013-03-23 20:05:00,
2013-03-23 13:06:00,71.1,32.5,29.96,WSW,244,0.7,3.9,24,0.00,CLR,FEW,0.00,900.9,WeatherDisplay:10.37,2013-03-23 20:06:00,
2013-03-23 13:10:00,71.3,33.6,29.96,SW,225,0.3,3.9,25,0.00,CLR,FEW,0.00,898.8,WeatherDisplay:10.37,2013-03-23 20:10:00,
2013-03-23 13:11:00,71.5,33.8,29.96,WSW,250,3.0,6.9,25,0.00,CLR,FEW,0.00,898.8,WeatherDisplay:10.37,2013-03-23 20:11:00,
2013-03-23 13:12:00,71.6,31.8,29.96,West,268,0.0,3.5,23,0.00,CLR,FEW,0.00,898.8,WeatherDisplay:10.37,2013-03-23 20:12:00,
2013-03-23 13:15:00,72.0,29.9,29.96,SW,229,1.0,0.0,21,0.00,CLR,FEW,0.00,900.9,WeatherDisplay:10.37,2013-03-23 20:15:00,
2013-03-23 13:16:00,71.8,29.7,29.96,SSW,196,0.0,3.5,21,0.00,CLR,FEW,0.00,903.0,WeatherDisplay:10.37,2013-03-23 20:16:00,
2013-03-23 13:17:00,71.5,29.5,29.96,SSW,196,0.0,0.0,21,0.00,CLR,FEW,0.00,903.0,WeatherDisplay:10.37,2013-03-23 20:17:00,
2013-03-23 13:20:00,71.8,32.0,29.96,WSW,241,0.3,6.5,23,0.00,CLR,FEW,0.00,896.7,WeatherDisplay:10.37,2013-03-23 20:20:00,
2013-03-23 13:21:00,72.3,33.5,29.96,WSW,242,2.9,6.9,24,0.00,CLR,FEW,0.00,896.7,WeatherDisplay:10.37,2013-03-23 20:21:00,
2013-03-23 13:22:00,72.5,31.5,29.96,WSW,242,1.2,8.1,22,0.00,CLR,FEW,0.00,898.8,WeatherDisplay:10.37,2013-03-23 20:22:00,
2013-03-23 13:26:00,73.5,32.3,29.96,WSW,238,0.1,5.8,22,0.00,CLR,FEW,0.00,896.7,WeatherDisplay:10.37,2013-03-23 20:26:00,
2013-03-23 13:27:00,73.7,30.1,29.96,WSW,243,1.4,8.1,20,0.00,CLR,FEW,0.00,896.7,WeatherDisplay:10.37,2013-03-23 20:27:00,
2013-03-23 13:28:00,73.9,31.5,29.96,WSW,244,3.0,8.1,21,0.00,CLR,FEW,0.00,898.8,WeatherDisplay:10.37,2013-03-23 20:28:00,
2013-03-23 13:32:00,73.7,28.8,29.96,WSW,246,0.0,0.0,19,0.00,CLR,FEW,0.00,896.7,WeatherDisplay:10.37,2013-03-23 20:32:00,
2013-03-23 13:34:00,73.7,30.1,29.96,SW,225,0.1,1.2,20,0.00,CLR,FEW,0.00,898.8,WeatherDisplay:10.37,2013-03-23 20:34:00,
2013-03-23 13:37:00,73.9,30.3,29.96,SSW,208,0.0,8.1,20,0.00,CLR,FEW,0.00,891.5,WeatherDisplay:10.37,2013-03-23 20:37:00,
2013-03-23 13:38:00,73.9,30.3,29.96,SW,221,0.0,0.0,20,0.00,CLR,FEW,0.00,891.5,WeatherDisplay:10.37,2013-03-23 20:38:00,
2013-03-23 13:39:00,73.9,30.3,29.96,SW,223,0.0,0.0,20,0.00,CLR,FEW,0.00,891.5,WeatherDisplay:10.37,2013-03-23 20:39:00,
2013-03-23 13:40:00,74.0,31.6,29.96,SSW,194,0.2,1.3,21,0.00,CLR,FEW,0.00,889.4,WeatherDisplay:10.37,2013-03-23 20:40:00,
2013-03-23 13:43:00,73.7,33.6,29.96,WSW,245,1.0,5.8,23,0.00,CLR,FEW,0.00,888.3,WeatherDisplay:10.37,2013-03-23 20:43:00,
2013-03-23 13:44:00,73.7,30.1,29.96,WSW,244,0.7,3.5,20,0.00,CLR,FEW,0.00,888.3,WeatherDisplay:10.37,2013-03-23 20:44:00,
2013-03-23 13:45:00,73.7,30.1,29.96,WSW,243,3.2,7.8,20,0.00,CLR,FEW,0.00,888.3,WeatherDisplay:10.37,2013-03-23 20:45:00,
2013-03-23 13:48:00,73.2,29.7,29.96,WSW,248,6.2,6.9,20,0.00,CLR,FEW,0.00,889.4,WeatherDisplay:10.37,2013-03-23 20:48:00,
2013-03-23 13:49:00,73.2,29.7,29.96,WSW,248,0.6,12.7,20,0.00,CLR,FEW,0.00,888.3,WeatherDisplay:10.37,2013-03-23 20:49:00,
2013-03-23 13:51:00,73.3,28.5,29.96,SSW,198,4.5,11.7,19,0.00,CLR,FEW,0.00,884.1,WeatherDisplay:10.37,2013-03-23 20:51:00,
2013-03-23 13:52:00,73.2,28.4,29.96,WSW,237,3.5,9.2,19,0.00,CLR,FEW,0.00,886.2,WeatherDisplay:10.37,2013-03-23 20:52:00,
2013-03-23 13:53:00,73.3,31.0,29.96,SSW,194,1.7,5.8,21,0.00,CLR,FEW,0.00,882.0,WeatherDisplay:10.37,2013-03-23 20:53:00,
2013-03-23 13:55:00,73.5,29.9,29.96,WSW,242,0.1,1.3,20,0.00,CLR,FEW,0.00,876.8,WeatherDisplay:10.37,2013-03-23 20:55:00,
2013-03-23 13:57:00,73.9,32.6,29.96,SSW,202,1.4,1.4,22,0.00,CLR,FEW,0.00,871.5,WeatherDisplay:10.37,2013-03-23 20:57:00,
2013-03-23 13:58:00,74.2,32.9,29.96,WSW,250,0.7,0.0,22,0.00,CLR,FEW,0.00,872.5,WeatherDisplay:10.37,2013-03-23 20:58:00,
2013-03-23 14:00:00,74.6,33.2,29.96,WSW,246,7.6,11.5,22,0.00,CLR,FEW,0.00,869.4,WeatherDisplay:10.37,2013-03-23 21:00:00,
2013-03-23 14:02:00,74.6,33.2,29.95,WSW,246,0.7,9.2,22,0.00,CLR,FEW,0.00,872.5,WeatherDisplay:10.37,2013-03-23 21:02:00,
2013-03-23 14:05:00,74.2,27.9,29.95,SSW,198,1.2,9.2,18,0.00,CLR,FEW,0.00,871.5,WeatherDisplay:10.37,2013-03-23 21:05:00,
2013-03-23 14:07:00,73.7,28.8,29.95,SSW,196,1.2,3.5,19,0.00,CLR,FEW,0.00,862.0,WeatherDisplay:10.37,2013-03-23 21:07:00,
2013-03-23 14:11:00,73.5,29.9,29.95,SW,215,3.4,13.8,20,0.00,CLR,FEW,0.00,860.0,WeatherDisplay:10.37,2013-03-23 21:11:00,
2013-03-23 14:12:00,73.3,29.8,29.95,SSW,210,1.7,13.8,20,0.00,CLR,FEW,0.00,857.9,WeatherDisplay:10.37,2013-03-23 21:12:00,
2013-03-23 14:16:00,73.5,29.9,29.95,SSW,202,1.2,9.2,20,0.00,CLR,FEW,0.00,850.5,WeatherDisplay:10.37,2013-03-23 21:16:00,
2013-03-23 14:17:00,73.5,29.9,29.95,SSW,202,0.1,9.2,20,0.00,CLR,FEW,0.00,849.5,WeatherDisplay:10.37,2013-03-23 21:17:00,
2013-03-23 14:18:00,73.7,31.3,29.95,WSW,245,0.0,0.0,21,0.00,CLR,FEW,0.00,850.5,WeatherDisplay:10.37,2013-03-23 21:18:00,
2013-03-23 14:21:00,74.4,29.4,29.95,SW,215,2.5,6.5,19,0.00,CLR,FEW,0.00,849.5,WeatherDisplay:10.37,2013-03-23 21:21:00,
2013-03-23 14:23:00,74.2,29.3,29.95,SSW,198,1.2,6.9,19,0.00,CLR,FEW,0.00,843.1,WeatherDisplay:10.37,2013-03-23 21:23:00,
2013-03-23 14:24:00,74.2,30.5,29.95,SSW,194,2.5,8.1,20,0.00,CLR,FEW,0.00,840.0,WeatherDisplay:10.37,2013-03-23 21:24:00,
2013-03-23 14:27:00,74.0,29.1,29.95,South,188,0.3,5.2,19,0.00,CLR,FEW,0.00,837.9,WeatherDisplay:10.37,2013-03-23 21:27:00,
2013-03-23 14:28:00,73.9,29.0,29.95,SE,143,3.5,9.2,19,0.00,CLR,FEW,0.00,834.8,WeatherDisplay:10.37,2013-03-23 21:28:00,
2013-03-23 14:30:00,73.9,29.0,29.95,SSE,168,12.0,0.0,19,0.00,CLR,FEW,0.00,828.5,WeatherDisplay:10.37,2013-03-23 21:30:00,
2013-03-23 14:33:00,74.0,29.1,29.94,South,182,2.5,8.1,19,0.00,CLR,FEW,0.00,827.4,WeatherDisplay:10.37,2013-03-23 21:33:00,
2013-03-23 14:36:00,74.4,28.1,29.94,SW,219,0.0,1.2,18,0.00,CLR,FEW,0.00,821.1,WeatherDisplay:10.37,2013-03-23 21:36:00,
2013-03-23 14:38:00,74.9,29.8,29.94,WSW,246,0.0,0.0,19,0.00,CLR,FEW,0.00,818.0,WeatherDisplay:10.37,2013-03-23 21:38:00,
2013-03-23 14:40:00,75.3,26.0,29.94,SSW,192,7.2,9.2,16,0.00,CLR,FEW,0.00,818.0,WeatherDisplay:10.37,2013-03-23 21:40:00,
2013-03-23 14:41:00,75.3,26.0,29.94,SSW,208,2.5,9.2,16,0.00,CLR,FEW,0.00,813.8,WeatherDisplay:10.37,2013-03-23 21:41:00,
2013-03-23 14:43:00,75.1,27.3,29.94,SSW,208,0.0,0.0,17,0.00,CLR,FEW,0.00,813.8,WeatherDisplay:10.37,2013-03-23 21:43:00,
2013-03-23 14:45:00,75.4,26.1,29.94,SSW,197,5.8,10.4,16,0.00,CLR,FEW,0.00,811.6,WeatherDisplay:10.37,2013-03-23 21:45:00,
2013-03-23 14:47:00,75.3,26.0,29.94,South,190,8.2,13.0,16,0.00,CLR,FEW,0.00,806.4,WeatherDisplay:10.37,2013-03-23 21:47:00,
2013-03-23 14:48:00,74.9,24.1,29.94,SSW,196,8.6,12.7,15,0.00,CLR,FEW,0.00,803.3,WeatherDisplay:10.37,2013-03-23 21:48:00,
2013-03-23 14:50:00,74.6,25.4,29.94,SSW,196,4.1,9.2,16,0.00,CLR,FEW,0.00,801.1,WeatherDisplay:10.37,2013-03-23 21:50:00,
2013-03-23 14:52:00,74.4,25.2,29.94,SSW,209,6.6,13.0,16,0.00,CLR,FEW,0.00,730.8,WeatherDisplay:10.37,2013-03-23 21:52:00,
2013-03-23 14:53:00,74.4,25.2,29.94,SSW,202,7.1,12.7,16,0.00,CLR,FEW,0.00,730.8,WeatherDisplay:10.37,2013-03-23 21:53:00,
2013-03-23 14:55:00,74.2,23.5,29.94,SSE,163,0.6,5.8,15,0.00,CLR,FEW,0.00,789.6,WeatherDisplay:10.37,2013-03-23 21:55:00,
2013-03-23 14:58:00,74.2,23.5,29.94,SSW,208,6.3,11.5,15,0.00,CLR,FEW,0.00,784.4,WeatherDisplay:10.37,2013-03-23 21:58:00,
2013-03-23 15:01:00,74.0,23.4,29.94,SSW,202,5.8,11.5,15,0.00,CLR,FEW,0.00,779.1,WeatherDisplay:10.37,2013-03-23 22:01:00,
2013-03-23 15:03:00,74.6,23.9,29.94,SSW,209,5.9,10.4,15,0.00,CLR,FEW,0.00,774.9,WeatherDisplay:10.37,2013-03-23 22:03:00,
2013-03-23 15:05:00,74.9,22.5,29.94,South,181,8.4,11.5,14,0.00,CLR,FEW,0.00,769.6,WeatherDisplay:10.37,2013-03-23 22:05:00,
2013-03-23 15:06:00,74.9,22.5,29.94,South,189,7.7,11.5,14,0.00,CLR,FEW,0.00,769.6,WeatherDisplay:10.37,2013-03-23 22:06:00,
2013-03-23 15:07:00,74.9,22.5,29.94,South,184,6.5,11.5,14,0.00,CLR,FEW,0.00,764.4,WeatherDisplay:10.37,2013-03-23 22:07:00,
2013-03-23 15:08:00,74.7,22.3,29.94,SSW,202,2.5,10.4,14,0.00,CLR,FEW,0.00,764.4,WeatherDisplay:10.37,2013-03-23 22:08:00,
2013-03-23 15:10:00,74.6,23.9,29.94,SW,223,2.4,9.2,15,0.00,CLR,FEW,0.00,758.1,WeatherDisplay:10.37,2013-03-23 22:10:00,
2013-03-23 15:11:00,74.6,23.9,29.94,WSW,241,1.9,9.2,15,0.00,CLR,FEW,0.00,758.1,WeatherDisplay:10.37,2013-03-23 22:11:00,
2013-03-23 15:12:00,74.7,23.9,29.94,WSW,250,4.8,8.1,15,0.00,CLR,FEW,0.00,755.0,WeatherDisplay:10.37,2013-03-23 22:12:00,
2013-03-23 15:15:00,75.3,22.8,29.94,WSW,252,3.2,9.2,14,0.00,CLR,FEW,0.00,745.5,WeatherDisplay:10.37,2013-03-23 22:15:00,
2013-03-23 15:16:00,75.4,22.8,29.94,WSW,252,2.3,9.2,14,0.00,CLR,FEW,0.00,745.5,WeatherDisplay:10.37,2013-03-23 22:16:00,
2013-03-23 15:17:00,75.4,24.5,29.94,SSW,202,2.4,10.4,15,0.00,CLR,FEW,0.00,743.4,WeatherDisplay:10.37,2013-03-23 22:17:00,
2013-03-23 15:18:00,75.4,22.8,29.94,SSW,205,3.4,10.4,14,0.00,CLR,FEW,0.00,742.4,WeatherDisplay:10.37,2013-03-23 22:18:00,
2013-03-23 15:20:00,75.1,22.6,29.94,South,190,3.7,12.7,14,0.00,CLR,FEW,0.00,738.1,WeatherDisplay:10.37,2013-03-23 22:20:00,
2013-03-23 15:21:00,74.9,22.5,29.94,SW,216,3.5,12.7,14,0.00,CLR,FEW,0.00,736.0,WeatherDisplay:10.37,2013-03-23 22:21:00,
2013-03-23 15:22:00,74.9,22.5,29.94,South,185,9.4,13.8,14,0.00,CLR,FEW,0.00,735.0,WeatherDisplay:10.37,2013-03-23 22:22:00,
2013-03-23 15:23:00,74.7,23.9,29.94,SSE,149,0.7,10.4,15,0.00,CLR,FEW,0.00,732.9,WeatherDisplay:10.37,2013-03-23 22:23:00,
2013-03-23 15:26:00,74.9,24.1,29.94,SW,228,6.5,12.7,15,0.00,CLR,FEW,0.00,725.5,WeatherDisplay:10.37,2013-03-23 22:26:00,
2013-03-23 15:27:00,74.9,25.6,29.94,SSW,203,3.4,9.2,16,0.00,CLR,FEW,0.00,721.4,WeatherDisplay:10.37,2013-03-23 22:27:00,
2013-03-23 15:29:00,74.9,24.1,29.94,SSW,205,4.4,6.9,15,0.00,CLR,FEW,0.00,716.1,WeatherDisplay:10.37,2013-03-23 22:29:00,
2013-03-23 15:32:00,75.3,24.4,29.93,SW,219,4.1,9.2,15,0.00,CLR,FEW,0.00,708.8,WeatherDisplay:10.37,2013-03-23 22:32:00,
2013-03-23 15:33:00,75.3,22.8,29.93,WSW,252,3.7,10.4,14,0.00,CLR,FEW,0.00,657.3,WeatherDisplay:10.37,2013-03-23 22:33:00,
2013-03-23 15:35:00,75.6,27.7,29.93,WSW,246,5.7,11.7,17,0.00,CLR,FEW,0.00,699.3,WeatherDisplay:10.37,2013-03-23 22:35:00,
2013-03-23 15:37:00,75.3,26.0,29.93,WSW,246,9.7,13.0,16,0.00,CLR,FEW,0.00,696.1,WeatherDisplay:10.37,2013-03-23 22:37:00,
2013-03-23 15:38:00,75.3,26.0,29.93,WSW,246,9.9,14.3,16,0.00,CLR,FEW,0.00,694.0,WeatherDisplay:10.37,2013-03-23 22:38:00,
2013-03-23 15:40:00,75.3,24.4,29.93,SSW,198,5.5,6.5,15,0.00,CLR,FEW,0.00,684.6,WeatherDisplay:10.37,2013-03-23 22:40:00,
2013-03-23 15:43:00,74.9,25.6,29.93,WSW,256,1.4,6.9,16,0.00,CLR,FEW,0.00,675.1,WeatherDisplay:10.37,2013-03-23 22:43:00,
2013-03-23 15:44:00,74.9,25.6,29.93,WSW,247,5.6,10.4,16,0.00,CLR,FEW,0.00,674.1,WeatherDisplay:10.37,2013-03-23 22:44:00,
2013-03-23 15:45:00,75.1,27.3,29.93,SW,216,0.2,10.4,17,0.00,CLR,FEW,0.00,674.1,WeatherDisplay:10.37,2013-03-23 22:45:00,
2013-03-23 15:48:00,75.3,24.4,29.93,South,191,5.4,9.2,15,0.00,CLR,FEW,0.00,669.9,WeatherDisplay:10.37,2013-03-23 22:48:00,
2013-03-23 15:49:00,75.1,25.8,29.93,South,191,0.1,3.5,16,0.00,CLR,FEW,0.00,623.7,WeatherDisplay:10.37,2013-03-23 22:49:00,
2013-03-23 15:50:00,75.1,25.8,29.93,SSW,199,0.8,6.5,16,0.00,CLR,FEW,0.00,633.1,WeatherDisplay:10.37,2013-03-23 22:50:00,
2013-03-23 15:54:00,75.1,25.8,29.93,SW,219,2.0,5.8,16,0.00,CLR,FEW,0.00,655.2,WeatherDisplay:10.37,2013-03-23 22:54:00,
2013-03-23 15:55:00,75.2,25.9,29.93,SSW,202,2.0,0.0,16,0.00,CLR,FEW,0.00,653.1,WeatherDisplay:10.37,2013-03-23 22:55:00,
2013-03-23 15:56:00,75.3,24.4,29.93,SSW,194,1.0,6.9,15,0.00,CLR,FEW,0.00,653.1,WeatherDisplay:10.37,2013-03-23 22:56:00,
2013-03-23 15:59:00,75.3,26.0,29.93,SW,217,0.4,9.2,16,0.00,CLR,FEW,0.00,640.5,WeatherDisplay:10.37,2013-03-23 22:59:00,
2013-03-23 16:00:00,75.4,26.1,29.93,SSW,209,0.3,2.3,16,0.00,CLR,FEW,0.00,638.4,WeatherDisplay:10.37,2013-03-23 23:00:00,
2013-03-23 16:01:00,75.6,26.2,29.92,SSW,208,0.0,2.3,16,0.00,CLR,FEW,0.00,616.4,WeatherDisplay:10.37,2013-03-23 23:01:00,
2013-03-23 16:03:00,75.1,24.3,29.92,SSW,196,0.3,1.2,15,0.00,CLR,FEW,0.00,572.3,WeatherDisplay:10.37,2013-03-23 23:03:00,
2013-03-23 16:05:00,75.2,25.9,29.92,SSW,205,1.0,0.0,16,0.00,CLR,FEW,0.00,559.6,WeatherDisplay:10.37,2013-03-23 23:05:00,
2013-03-23 16:07:00,75.1,25.8,29.92,South,184,0.6,10.4,16,0.00,CLR,FEW,0.00,616.4,WeatherDisplay:10.37,2013-03-23 23:07:00,
2013-03-23 16:08:00,75.1,27.3,29.92,SSW,192,3.6,11.5,17,0.00,CLR,FEW,0.00,574.4,WeatherDisplay:10.37,2013-03-23 23:08:00,
2013-03-23 16:10:00,75.1,25.8,29.92,South,190,3.5,9.2,16,0.00,CLR,FEW,0.00,613.2,WeatherDisplay:10.37,2013-03-23 23:10:00,
2013-03-23 16:12:00,75.1,25.8,29.92,SSW,202,0.7,2.3,16,0.00,CLR,FEW,0.00,601.6,WeatherDisplay:10.37,2013-03-23 23:12:00,
2013-03-23 16:13:00,74.9,27.1,29.92,SW,216,5.2,9.2,17,0.00,CLR,FEW,0.00,579.6,WeatherDisplay:10.37,2013-03-23 23:13:00,
2013-03-23 16:15:00,75.1,27.3,29.92,WSW,239,0.0,3.5,17,0.00,CLR,FEW,0.00,516.6,WeatherDisplay:10.37,2013-03-23 23:15:00,
2013-03-23 16:16:00,75.3,27.4,29.92,SW,223,0.0,3.5,17,0.00,CLR,FEW,0.00,516.6,WeatherDisplay:10.37,2013-03-23 23:16:00,
2013-03-23 16:18:00,75.4,26.1,29.92,SSW,209,0.0,0.0,16,0.00,CLR,FEW,0.00,352.8,WeatherDisplay:10.37,2013-03-23 23:18:00,
2013-03-23 16:19:00,75.4,26.1,29.92,SSW,198,0.0,0.0,16,0.00,CLR,FEW,0.00,540.8,WeatherDisplay:10.37,2013-03-23 23:19:00,
2013-03-23 16:21:00,75.3,26.0,29.92,South,189,0.9,3.9,16,0.00,CLR,FEW,0.00,570.1,WeatherDisplay:10.37,2013-03-23 23:21:00,
2013-03-23 16:22:00,75.1,27.3,29.92,SSW,196,1.5,3.9,17,0.00,CLR,FEW,0.00,568.0,WeatherDisplay:10.37,2013-03-23 23:22:00,
2013-03-23 16:23:00,75.1,27.3,29.92,SW,226,5.1,8.1,17,0.00,CLR,FEW,0.00,568.0,WeatherDisplay:10.37,2013-03-23 23:23:00,
2013-03-23 16:25:00,75.3,26.0,29.92,South,190,2.9,11.5,16,0.00,CLR,FEW,0.00,555.5,WeatherDisplay:10.37,2013-03-23 23:25:00,
2013-03-23 16:27:00,75.3,24.4,29.92,SSW,201,1.1,5.8,15,0.00,CLR,FEW,0.00,535.5,WeatherDisplay:10.37,2013-03-23 23:27:00,
2013-03-23 16:28:00,75.3,26.0,29.92,South,190,1.4,6.5,16,0.00,CLR,FEW,0.00,542.9,WeatherDisplay:10.37,2013-03-23 23:28:00,
2013-03-23 16:30:00,75.1,25.8,29.92,SSW,194,1.6,6.9,16,0.00,CLR,FEW,0.00,552.3,WeatherDisplay:10.37,2013-03-23 23:30:00,
2013-03-23 16:33:00,75.1,27.3,29.92,SSW,211,1.0,3.5,17,0.00,CLR,FEW,0.00,518.7,WeatherDisplay:10.37,2013-03-23 23:33:00,
2013-03-23 16:35:00,75.1,28.7,29.92,SSW,213,2.0,0.0,18,0.00,CLR,FEW,0.00,531.3,WeatherDisplay:10.37,2013-03-23 23:35:00,
2013-03-23 16:36:00,75.3,27.4,29.92,WSW,242,9.9,13.8,17,0.00,CLR,FEW,0.00,504.0,WeatherDisplay:10.37,2013-03-23 23:36:00,
2013-03-23 16:39:00,75.3,27.4,29.92,SSW,211,3.0,8.1,17,0.00,CLR,FEW,0.00,416.9,WeatherDisplay:10.37,2013-03-23 23:39:00,
2013-03-23 16:40:00,75.1,27.3,29.92,SSW,201,3.9,6.9,17,0.00,CLR,FEW,0.00,367.5,WeatherDisplay:10.37,2013-03-23 23:40:00,
2013-03-23 16:41:00,74.9,27.1,29.92,SW,217,5.6,10.4,17,0.00,CLR,FEW,0.00,367.5,WeatherDisplay:10.37,2013-03-23 23:41:00,
2013-03-23 16:44:00,74.4,28.1,29.92,SSW,210,0.8,10.4,18,0.00,CLR,FEW,0.00,448.4,WeatherDisplay:10.37,2013-03-23 23:44:00,
2013-03-23 16:46:00,74.0,26.4,29.92,South,187,6.3,11.5,17,0.00,CLR,FEW,0.00,407.4,WeatherDisplay:10.37,2013-03-23 23:46:00,
2013-03-23 16:47:00,73.7,26.1,29.92,South,191,5.7,9.2,17,0.00,CLR,FEW,0.00,448.4,WeatherDisplay:10.37,2013-03-23 23:47:00,
2013-03-23 16:49:00,73.7,26.1,29.92,SSW,205,0.1,3.5,17,0.00,CLR,FEW,0.00,424.2,WeatherDisplay:10.37,2013-03-23 23:49:00,
2013-03-23 16:51:00,73.5,24.5,29.92,South,190,2.4,9.2,16,0.00,CLR,FEW,0.00,240.4,WeatherDisplay:10.37,2013-03-23 23:51:00,
2013-03-23 16:53:00,73.3,24.4,29.92,South,189,3.1,6.9,16,0.00,FEW,,0.00,217.3,WeatherDisplay:10.37,2013-03-23 23:53:00,
2013-03-23 16:54:00,73.2,27.1,29.92,WSW,244,0.8,2.3,18,0.00,SCT,FEW,0.00,253.1,WeatherDisplay:10.37,2013-03-23 23:54:00,
2013-03-23 16:56:00,73.3,27.2,29.92,WSW,246,0.0,0.0,18,0.00,SCT,FEW,0.00,301.4,WeatherDisplay:10.37,2013-03-23 23:56:00,
2013-03-23 16:57:00,73.3,27.2,29.92,WSW,244,0.0,0.0,18,0.00,SCT,FEW,0.00,301.4,WeatherDisplay:10.37,2013-03-23 23:57:00,
2013-03-23 16:59:00,73.7,30.1,29.92,WSW,250,0.1,5.8,20,0.00,SCT,FEW,0.00,282.4,WeatherDisplay:10.37,2013-03-23 23:59:00,
2013-03-23 17:02:00,73.7,27.5,29.92,SSW,205,0.2,1.2,18,0.00,FEW,,0.00,360.1,WeatherDisplay:10.37,2013-03-24 00:02:00,
2013-03-23 17:04:00,73.7,26.1,29.92,South,188,0.0,10.4,17,0.00,CLR,FEW,0.00,426.3,WeatherDisplay:10.37,2013-03-24 00:04:00,
2013-03-23 17:07:00,73.7,26.1,29.92,South,190,11.7,16.1,17,0.00,CLR,FEW,0.00,404.3,WeatherDisplay:10.37,2013-03-24 00:07:00,
2013-03-23 17:08:00,73.5,26.0,29.92,SSW,198,11.2,13.8,17,0.00,CLR,FEW,0.00,404.3,WeatherDisplay:10.37,2013-03-24 00:08:00,
2013-03-23 17:09:00,73.3,25.8,29.92,South,186,7.8,10.4,17,0.00,CLR,FEW,0.00,363.3,WeatherDisplay:10.37,2013-03-24 00:09:00,
2013-03-23 17:13:00,73.2,27.1,29.92,SSW,209,1.0,6.5,18,0.00,CLR,FEW,0.00,333.9,WeatherDisplay:10.37,2013-03-24 00:13:00,
2013-03-23 17:14:00,73.2,25.7,29.92,SSW,195,0.6,6.9,17,0.00,CLR,FEW,0.00,278.3,WeatherDisplay:10.37,2013-03-24 00:14:00,
2013-03-23 17:19:00,72.8,26.8,29.92,SSW,194,0.2,6.5,18,0.00,CLR,FEW,0.00,228.9,WeatherDisplay:10.37,2013-03-24 00:19:00,
2013-03-23 17:20:00,72.8,25.4,29.92,SW,223,0.0,6.9,17,0.00,CLR,FEW,0.00,151.2,WeatherDisplay:10.37,2013-03-24 00:20:00,
2013-03-23 17:24:00,73.0,25.6,29.92,SW,220,1.1,6.9,17,0.00,SCT,FEW,0.00,102.9,WeatherDisplay:10.37,2013-03-24 00:24:00,
2013-03-23 17:27:00,73.0,25.6,29.92,SSW,211,3.5,9.2,17,0.00,BKN,FEW,0.00,112.3,WeatherDisplay:10.37,2013-03-24 00:27:00,
2013-03-23 17:29:00,72.7,25.3,29.92,SW,221,7.0,10.4,17,0.00,BKN,FEW,0.00,95.5,WeatherDisplay:10.37,2013-03-24 00:29:00,
2013-03-23 17:30:00,72.5,25.2,29.92,SSW,213,3.2,9.2,17,0.00,BKN,FEW,0.00,121.8,WeatherDisplay:10.37,2013-03-24 00:30:00,
2013-03-23 17:32:00,72.5,27.9,29.92,SSW,205,1.2,9.1,19,0.00,BKN,FEW,0.00,110.3,WeatherDisplay:10.37,2013-03-24 00:32:00,
2013-03-23 17:35:00,72.3,25.0,29.92,SSW,208,5.0,0.0,17,0.00,BKN,FEW,0.00,88.2,WeatherDisplay:10.37,2013-03-24 00:35:00,
2013-03-23 17:37:00,72.0,26.1,29.92,South,188,2.4,9.2,18,0.00,BKN,FEW,0.00,107.1,WeatherDisplay:10.37,2013-03-24 00:37:00,
2013-03-23 17:40:00,72.0,26.1,29.92,SSW,198,0.5,3.5,18,0.00,BKN,FEW,0.00,101.8,WeatherDisplay:10.37,2013-03-24 00:40:00,
2013-03-23 17:42:00,72.0,26.1,29.92,South,181,0.0,5.8,18,0.00,BKN,FEW,0.00,145.9,WeatherDisplay:10.37,2013-03-24 00:42:00,
2013-03-23 17:45:00,71.8,26.0,29.93,South,187,2.3,8.1,18,0.00,SCT,FEW,0.00,73.5,WeatherDisplay:10.37,2013-03-24 00:45:00,
2013-03-23 17:46:00,71.6,25.8,29.93,South,184,4.6,8.1,18,0.00,BKN,FEW,0.00,79.8,WeatherDisplay:10.37,2013-03-24 00:46:00,
2013-03-23 17:47:00,71.5,25.7,29.93,SSW,192,0.6,8.1,18,0.00,BKN,FEW,0.00,90.3,WeatherDisplay:10.37,2013-03-24 00:47:00,
2013-03-23 17:49:00,71.5,27.0,29.93,South,190,0.2,2.3,19,0.00,BKN,FEW,0.00,79.8,WeatherDisplay:10.37,2013-03-24 00:49:00,
2013-03-23 17:50:00,71.6,27.1,29.93,SSW,193,0.0,0.0,19,0.00,BKN,FEW,0.00,68.3,WeatherDisplay:10.37,2013-03-24 00:50:00,
2013-03-23 17:52:00,71.6,27.1,29.93,South,191,0.0,11.5,19,0.00,BKN,FEW,0.00,63.0,WeatherDisplay:10.37,2013-03-24 00:52:00,
2013-03-23 17:54:00,71.6,27.1,29.93,SSW,200,0.0,0.0,19,0.00,BKN,FEW,0.00,63.0,WeatherDisplay:10.37,2013-03-24 00:54:00,
2013-03-23 17:55:00,71.6,27.1,29.93,SSW,194,0.0,0.0,19,0.00,BKN,FEW,0.00,63.0,WeatherDisplay:10.37,2013-03-24 00:55:00,
2013-03-23 17:56:00,71.5,27.0,29.93,SSW,196,0.7,3.5,19,0.00,BKN,FEW,0.00,66.2,WeatherDisplay:10.37,2013-03-24 00:56:00,
2013-03-23 17:59:00,71.1,26.7,29.93,SSW,195,0.0,0.0,19,0.00,BKN,FEW,0.00,72.5,WeatherDisplay:10.37,2013-03-24 00:59:00,
2013-03-23 18:00:00,70.9,26.5,29.93,SW,215,0.0,0.0,19,0.00,BKN,FEW,0.00,60.9,WeatherDisplay:10.37,2013-03-24 01:00:00,
2013-03-23 18:01:00,70.9,27.8,29.93,South,190,0.0,0.0,20,0.00,BKN,FEW,0.00,58.8,WeatherDisplay:10.37,2013-03-24 01:01:00,
2013-03-23 18:02:00,70.9,27.8,29.93,SSW,193,0.0,0.0,20,0.00,BKN,FEW,0.00,58.8,WeatherDisplay:10.37,2013-03-24 01:02:00,
2013-03-23 18:05:00,70.9,27.8,29.93,SW,225,0.3,9.2,20,0.00,BKN,FEW,0.00,58.8,WeatherDisplay:10.37,2013-03-24 01:05:00,
2013-03-23 18:07:00,70.8,27.7,29.93,SSW,192,0.6,0.0,20,0.00,BKN,FEW,0.00,68.3,WeatherDisplay:10.37,2013-03-24 01:07:00,
2013-03-23 18:08:00,70.8,27.7,29.93,SSW,194,0.5,3.5,20,0.00,BKN,FEW,0.00,68.3,WeatherDisplay:10.37,2013-03-24 01:08:00,
2013-03-23 18:10:00,70.6,27.5,29.93,South,190,0.0,0.0,20,0.00,BKN,FEW,0.00,55.6,WeatherDisplay:10.37,2013-03-24 01:10:00,
2013-03-23 18:12:00,70.4,27.4,29.93,SSW,202,0.0,0.0,20,0.00,BKN,FEW,0.00,46.2,WeatherDisplay:10.37,2013-03-24 01:12:00,
2013-03-23 18:13:00,70.4,27.4,29.93,SSW,198,0.0,0.0,20,0.00,BKN,FEW,0.00,44.1,WeatherDisplay:10.37,2013-03-24 01:13:00,
2013-03-23 18:15:00,70.3,28.5,29.93,SSW,198,0.0,0.0,21,0.00,BKN,FEW,0.00,38.9,WeatherDisplay:10.37,2013-03-24 01:15:00,
2013-03-23 18:18:00,70.1,27.1,29.93,SSW,202,0.0,0.0,20,0.00,BKN,FEW,0.00,34.6,WeatherDisplay:10.37,2013-03-24 01:18:00,
2013-03-23 18:19:00,69.9,27.0,29.93,SSW,194,0.0,0.0,20,0.00,BKN,FEW,0.00,33.6,WeatherDisplay:10.37,2013-03-24 01:19:00,
2013-03-23 18:21:00,69.8,26.9,29.93,SSW,193,0.0,0.0,20,0.00,BKN,FEW,0.00,33.6,WeatherDisplay:10.37,2013-03-24 01:21:00,
2013-03-23 18:23:00,69.6,26.7,29.93,SSW,212,0.0,0.0,20,0.00,BKN,FEW,0.00,29.4,WeatherDisplay:10.37,2013-03-24 01:23:00,
2013-03-23 18:24:00,69.4,27.7,29.93,SSW,212,0.0,0.0,21,0.00,BKN,FEW,0.00,26.3,WeatherDisplay:10.37,2013-03-24 01:24:00,
2013-03-23 18:25:00,69.3,27.7,29.93,SSW,212,0.0,0.0,21,0.00,BKN,FEW,0.00,26.3,WeatherDisplay:10.37,2013-03-24 01:25:00,
2013-03-23 18:27:00,69.1,28.6,29.93,SSW,203,0.0,0.0,22,0.00,BKN,FEW,0.00,27.3,WeatherDisplay:10.37,2013-03-24 01:27:00,
2013-03-23 18:29:00,68.9,28.5,29.93,South,180,0.0,0.0,22,0.00,BKN,FEW,0.00,31.5,WeatherDisplay:10.37,2013-03-24 01:29:00,
2013-03-23 18:30:00,68.9,28.5,29.93,SSW,193,0.0,0.0,22,0.00,BKN,FEW,0.00,31.5,WeatherDisplay:10.37,2013-03-24 01:30:00,
2013-03-23 18:33:00,68.4,28.0,29.93,SE,139,0.0,0.0,22,0.00,BKN,FEW,0.00,29.4,WeatherDisplay:10.37,2013-03-24 01:33:00,
2013-03-23 18:34:00,68.4,28.0,29.93,SE,139,0.0,0.0,22,0.00,BKN,FEW,0.00,27.3,WeatherDisplay:10.37,2013-03-24 01:34:00,
2013-03-23 18:35:00,68.3,28.0,29.93,SE,139,0.0,0.0,22,0.00,BKN,FEW,0.00,24.1,WeatherDisplay:10.37,2013-03-24 01:35:00,
2013-03-23 18:38:00,68.1,28.9,29.93,SE,139,0.0,0.0,23,0.00,BKN,FEW,0.00,19.9,WeatherDisplay:10.37,2013-03-24 01:38:00,
2013-03-23 18:39:00,68.1,29.9,29.93,SE,139,0.0,0.0,24,0.00,BKN,FEW,0.00,19.9,WeatherDisplay:10.37,2013-03-24 01:39:00,
2013-03-23 18:40:00,67.9,28.7,29.93,SE,139,0.0,0.0,23,0.00,BKN,FEW,0.00,19.9,WeatherDisplay:10.37,2013-03-24 01:40:00,
2013-03-23 18:43:00,67.6,28.5,29.93,SE,139,0.0,0.0,23,0.00,BKN,FEW,0.00,18.9,WeatherDisplay:10.37,2013-03-24 01:43:00,
2013-03-23 18:44:00,67.6,29.5,29.93,SE,139,0.0,0.0,24,0.00,BKN,FEW,0.00,16.8,WeatherDisplay:10.37,2013-03-24 01:44:00,
2013-03-23 18:45:00,67.6,30.5,29.94,SE,139,0.0,0.0,25,0.00,BKN,FEW,0.00,14.7,WeatherDisplay:10.37,2013-03-24 01:45:00,
2013-03-23 18:46:00,67.6,30.5,29.94,SE,139,0.0,0.0,25,0.00,BKN,FEW,0.00,14.7,WeatherDisplay:10.37,2013-03-24 01:46:00,
2013-03-23 18:50:00,67.1,26.9,29.94,SE,139,0.0,0.0,22,0.00,BKN,FEW,0.00,11.6,WeatherDisplay:10.37,2013-03-24 01:50:00,
2013-03-23 18:52:00,67.1,26.9,29.94,SE,139,0.0,0.0,22,0.00,BKN,FEW,0.00,9.4,WeatherDisplay:10.37,2013-03-24 01:52:00,
2013-03-23 18:55:00,66.9,27.9,29.94,SE,139,0.0,0.0,23,0.00,BKN,FEW,0.00,7.3,WeatherDisplay:10.37,2013-03-24 01:55:00,
2013-03-23 18:57:00,66.9,27.9,29.94,SE,139,0.0,0.0,23,0.00,BKN,FEW,0.00,5.3,WeatherDisplay:10.37,2013-03-24 01:57:00,
2013-03-23 19:00:00,66.6,27.6,29.94,SE,139,0.0,0.0,23,0.00,OVC,FEW,0.00,0.0,WeatherDisplay:10.37,2013-03-24 02:00:00,
2013-03-23 19:02:00,66.4,26.4,29.95,SE,139,0.0,0.0,22,0.00,OVC,FEW,0.00,0.0,WeatherDisplay:10.37,2013-03-24 02:02:00,
2013-03-23 19:03:00,66.4,27.4,29.95,SE,139,0.0,0.0,23,0.00,OVC,FEW,0.00,0.0,WeatherDisplay:10.37,2013-03-24 02:03:00,
2013-03-23 19:05:00,66.4,25.2,29.95,NNW,347,0.0,0.0,21,0.00,OVC,FEW,0.00,0.0,WeatherDisplay:10.37,2013-03-24 02:05:00,
2013-03-23 19:07:00,66.6,25.4,29.95,East,81,0.0,0.0,21,0.00,OVC,FEW,0.00,0.0,WeatherDisplay:10.37,2013-03-24 02:07:00,
2013-03-23 19:08:00,66.6,27.6,29.95,East,83,0.0,0.0,23,0.00,OVC,FEW,0.00,0.0,WeatherDisplay:10.37,2013-03-24 02:08:00,
2013-03-23 19:09:00,66.4,27.4,29.95,SSE,158,0.0,0.0,23,0.00,OVC,FEW,0.00,0.0,WeatherDisplay:10.37,2013-03-24 02:09:00,
2013-03-23 19:11:00,66.1,29.2,29.95,SSE,158,0.0,0.0,25,0.00,OVC,FEW,0.00,0.0,WeatherDisplay:10.37,2013-03-24 02:11:00,
2013-03-23 19:13:00,66.0,30.1,29.95,SSE,158,0.0,0.0,26,0.00,OVC,FEW,0.00,0.0,WeatherDisplay:10.37,2013-03-24 02:13:00,
2013-03-23 19:14:00,65.8,29.0,29.95,SSE,157,0.0,0.0,25,0.00,OVC,FEW,0.00,0.0,WeatherDisplay:10.37,2013-03-24 02:14:00,
2013-03-23 19:15:00,65.8,29.9,29.95,SSE,158,0.0,0.0,26,0.00,OVC,FEW,0.00,0.0,WeatherDisplay:10.37,2013-03-24 02:15:00,
2013-03-23 19:18:00,65.3,29.5,29.96,SSE,150,0.0,0.0,26,0.00,OVC,FEW,0.00,0.0,WeatherDisplay:10.37,2013-03-24 02:18:00,
2013-03-23 19:19:00,65.3,28.5,29.96,SSE,150,0.0,0.0,25,0.00,OVC,FEW,0.00,0.0,WeatherDisplay:10.37,2013-03-24 02:19:00,
2013-03-23 19:20:00,65.3,28.5,29.96,SSE,155,0.0,0.0,25,0.00,OVC,FEW,0.00,0.0,WeatherDisplay:10.37,2013-03-24 02:20:00,
2013-03-23 19:24:00,65.2,28.5,29.96,SSE,149,0.1,1.3,25,0.00,OVC,FEW,0.00,0.0,WeatherDisplay:10.37,2013-03-24 02:24:00,
2013-03-23 19:26:00,65.0,29.2,29.96,SSE,149,0.0,0.0,26,0.00,OVC,FEW,0.00,0.0,WeatherDisplay:10.37,2013-03-24 02:26:00,
2013-03-23 19:27:00,65.0,29.2,29.96,SSE,149,0.0,0.0,26,0.00,OVC,FEW,0.00,0.0,WeatherDisplay:10.37,2013-03-24 02:27:00,
2013-03-23 19:29:00,64.7,29.0,29.96,SE,133,0.0,0.0,26,0.00,OVC,FEW,0.00,0.0,WeatherDisplay:10.37,2013-03-24 02:29:00,
2013-03-23 19:32:00,64.5,29.7,29.96,SSE,150,0.0,0.0,27,0.00,CLR,FEW,0.00,0.0,WeatherDisplay:10.37,2013-03-24 02:32:00,
2013-03-23 19:33:00,64.3,29.6,29.96,SSE,150,0.0,0.0,27,0.00,CLR,FEW,0.00,0.0,WeatherDisplay:10.37,2013-03-24 02:33:00,
2013-03-23 19:34:00,64.3,29.6,29.96,SSE,150,0.0,0.0,27,0.00,CLR,FEW,0.00,0.0,WeatherDisplay:10.37,2013-03-24 02:34:00,
2013-03-23 19:37:00,64.2,28.6,29.96,SSE,150,0.0,0.0,26,0.00,CLR,FEW,0.00,0.0,WeatherDisplay:10.37,2013-03-24 02:37:00,
2013-03-23 19:38:00,64.2,28.6,29.96,SE,139,0.0,3.9,26,0.00,CLR,FEW,0.00,0.0,WeatherDisplay:10.37,2013-03-24 02:38:00,
2013-03-23 19:39:00,64.2,28.6,29.96,SE,139,3.2,5.8,26,0.00,CLR,FEW,0.00,0.0,WeatherDisplay:10.37,2013-03-24 02:39:00,
2013-03-23 19:42:00,63.9,30.1,29.96,SE,139,0.0,1.2,28,0.00,CLR,FEW,0.00,0.0,WeatherDisplay:10.37,2013-03-24 02:42:00,
2013-03-23 19:43:00,63.7,30.0,29.96,SE,139,0.0,0.0,28,0.00,CLR,FEW,0.00,0.0,WeatherDisplay:10.37,2013-03-24 02:43:00,
2013-03-23 19:44:00,63.5,29.8,29.96,SE,139,0.0,0.0,28,0.00,CLR,FEW,0.00,0.0,WeatherDisplay:10.37,2013-03-24 02:44:00,
2013-03-23 19:47:00,63.1,29.4,29.96,SE,139,0.0,0.0,28,0.00,CLR,FEW,0.00,0.0,WeatherDisplay:10.37,2013-03-24 02:47:00,
2013-03-23 19:48:00,63.1,29.4,29.96,SE,139,0.0,0.0,28,0.00,CLR,FEW,0.00,0.0,WeatherDisplay:10.37,2013-03-24 02:48:00,
2013-03-23 19:49:00,63.1,29.4,29.96,SE,139,0.0,0.0,28,0.00,CLR,FEW,0.00,0.0,WeatherDisplay:10.37,2013-03-24 02:49:00,
2013-03-23 19:50:00,63.1,29.4,29.96,SE,139,0.0,0.0,28,0.00,CLR,FEW,0.00,0.0,WeatherDisplay:10.37,2013-03-24 02:50:00,
2013-03-23 19:53:00,63.1,28.5,29.96,SE,139,0.0,0.0,27,0.00,CLR,FEW,0.00,0.0,WeatherDisplay:10.37,2013-03-24 02:53:00,
2013-03-23 19:54:00,63.1,28.5,29.96,SE,139,0.0,0.0,27,0.00,CLR,FEW,0.00,0.0,WeatherDisplay:10.37,2013-03-24 02:54:00,
2013-03-23 19:55:00,63.1,28.5,29.96,SE,139,0.0,0.0,27,0.00,CLR,FEW,0.00,0.0,WeatherDisplay:10.37,2013-03-24 02:55:00,
2013-03-23 19:59:00,62.9,29.3,29.96,SE,139,0.0,0.0,28,0.00,CLR,FEW,0.00,0.0,WeatherDisplay:10.37,2013-03-24 02:59:00,
2013-03-23 20:00:00,62.9,29.3,29.96,SE,139,0.0,0.0,28,0.00,CLR,FEW,0.00,0.0,WeatherDisplay:10.37,2013-03-24 03:00:00,
2013-03-23 20:02:00,62.9,29.3,29.97,SE,139,0.0,0.0,28,0.00,CLR,FEW,0.00,0.0,WeatherDisplay:10.37,2013-03-24 03:02:00,
2013-03-23 20:04:00,63.1,29.4,29.97,SE,139,0.0,0.0,28,0.00,CLR,FEW,0.00,0.0,WeatherDisplay:10.37,2013-03-24 03:04:00,
2013-03-23 20:05:00,63.1,28.5,29.97,SE,139,0.0,0.0,27,0.00,CLR,FEW,0.00,0.0,WeatherDisplay:10.37,2013-03-24 03:05:00,
2013-03-23 20:07:00,63.2,28.6,29.97,SE,139,0.0,0.0,27,0.00,CLR,FEW,0.00,0.0,WeatherDisplay:10.37,2013-03-24 03:07:00,
2013-03-23 20:09:00,63.1,28.5,29.97,SE,139,0.0,0.0,27,0.00,CLR,FEW,0.00,0.0,WeatherDisplay:10.37,2013-03-24 03:09:00,
2013-03-23 20:12:00,62.9,29.3,29.97,SE,139,0.0,0.0,28,0.00,CLR,FEW,0.00,0.0,WeatherDisplay:10.37,2013-03-24 03:12:00,
2013-03-23 20:14:00,62.6,29.9,29.97,SE,139,0.0,0.0,29,0.00,CLR,FEW,0.00,0.0,WeatherDisplay:10.37,2013-03-24 03:14:00,
2013-03-23 20:16:00,62.4,30.5,29.97,SE,139,0.0,0.0,30,0.00,CLR,FEW,0.00,0.0,WeatherDisplay:10.37,2013-03-24 03:16:00,
2013-03-23 20:17:00,62.1,30.3,29.97,ESE,114,0.0,0.0,30,0.00,CLR,FEW,0.00,0.0,WeatherDisplay:10.37,2013-03-24 03:17:00,
2013-03-23 20:19:00,61.6,30.6,29.97,ENE,72,0.0,0.0,31,0.00,CLR,FEW,0.00,0.0,WeatherDisplay:10.37,2013-03-24 03:19:00,
2013-03-23 20:20:00,61.6,30.7,29.97,SE,127,0.0,0.0,31,0.00,CLR,FEW,0.00,0.0,WeatherDisplay:10.37,2013-03-24 03:20:00,
2013-03-23 20:22:00,61.5,29.7,29.97,ENE,78,0.0,0.0,30,0.00,CLR,FEW,0.00,0.0,WeatherDisplay:10.37,2013-03-24 03:22:00,
2013-03-23 20:23:00,61.6,29.0,29.97,ENE,78,0.0,0.0,29,0.00,CLR,FEW,0.00,0.0,WeatherDisplay:10.37,2013-03-24 03:23:00,
2013-03-23 20:25:00,61.8,30.0,29.97,East,80,0.0,0.0,30,0.00,CLR,FEW,0.00,0.0,WeatherDisplay:10.37,2013-03-24 03:25:00,
2013-03-23 20:26:00,61.8,30.0,29.97,East,84,0.0,0.0,30,0.00,CLR,FEW,0.00,0.0,WeatherDisplay:10.37,2013-03-24 03:26:00,
2013-03-23 20:27:00,61.8,30.0,29.97,East,84,0.0,0.0,30,0.00,CLR,FEW,0.00,0.0,WeatherDisplay:10.37,2013-03-24 03:27:00,
2013-03-23 20:30:00,61.8,30.8,29.97,East,84,0.0,0.0,31,0.00,CLR,FEW,0.00,0.0,WeatherDisplay:10.37,2013-03-24 03:30:00,
2013-03-23 20:31:00,61.6,30.6,29.98,East,84,0.0,0.0,31,0.00,CLR,FEW,0.00,0.0,WeatherDisplay:10.37,2013-03-24 03:31:00,
2013-03-23 20:33:00,61.5,29.7,29.98,East,83,0.0,0.0,30,0.00,CLR,FEW,0.00,0.0,WeatherDisplay:10.37,2013-03-24 03:33:00,
2013-03-23 20:34:00,61.5,29.7,29.98,East,84,0.0,0.0,30,0.00,CLR,FEW,0.00,0.0,WeatherDisplay:10.37,2013-03-24 03:34:00,
2013-03-23 20:35:00,61.5,29.7,29.98,East,84,0.0,0.0,30,0.00,CLR,FEW,0.00,0.0,WeatherDisplay:10.37,2013-03-24 03:35:00,
2013-03-23 20:36:00,61.5,29.7,29.98,East,84,0.0,0.0,30,0.00,CLR,FEW,0.00,0.0,WeatherDisplay:10.37,2013-03-24 03:36:00,
2013-03-23 20:39:00,61.5,28.9,29.98,East,84,0.0,0.0,29,0.00,CLR,FEW,0.00,0.0,WeatherDisplay:10.37,2013-03-24 03:39:00,
2013-03-23 20:40:00,61.5,29.7,29.98,East,84,0.0,0.0,30,0.00,CLR,FEW,0.00,0.0,WeatherDisplay:10.37,2013-03-24 03:40:00,
2013-03-23 20:41:00,61.5,29.7,29.98,East,83,0.0,0.0,30,0.00,CLR,FEW,0.00,0.0,WeatherDisplay:10.37,2013-03-24 03:41:00,
2013-03-23 20:45:00,61.5,28.9,29.98,East,83,0.0,0.0,29,0.00,CLR,FEW,0.00,0.0,WeatherDisplay:10.37,2013-03-24 03:45:00,
2013-03-23 20:46:00,61.6,29.0,29.98,East,84,0.0,0.0,29,0.00,CLR,FEW,0.00,0.0,WeatherDisplay:10.37,2013-03-24 03:46:00,
2013-03-23 20:50:00,61.5,29.8,29.98,East,84,0.0,0.0,30,0.00,CLR,FEW,0.00,0.0,WeatherDisplay:10.37,2013-03-24 03:50:00,
2013-03-23 20:52:00,61.2,30.3,29.98,East,84,0.0,0.0,31,0.00,CLR,FEW,0.00,0.0,WeatherDisplay:10.37,2013-03-24 03:52:00,
2013-03-23 20:55:00,60.9,29.2,29.98,East,84,0.0,0.0,30,0.00,CLR,FEW,0.00,0.0,WeatherDisplay:10.37,2013-03-24 03:55:00,
2013-03-23 20:57:00,60.9,29.2,29.98,East,84,0.0,0.0,30,0.00,CLR,FEW,0.00,0.0,WeatherDisplay:10.37,2013-03-24 03:57:00,
2013-03-23 20:58:00,60.7,29.1,29.98,East,84,0.0,0.0,30,0.00,CLR,FEW,0.00,0.0,WeatherDisplay:10.37,2013-03-24 03:58:00,
2013-03-23 21:00:00,60.7,29.1,29.98,East,84,0.0,0.0,30,0.00,CLR,FEW,0.00,0.0,WeatherDisplay:10.37,2013-03-24 04:00:00,
2013-03-23 21:02:00,60.4,29.6,29.98,East,84,0.0,0.0,31,0.00,CLR,FEW,0.00,0.0,WeatherDisplay:10.37,2013-03-24 04:02:00,
2013-03-23 21:05:00,60.1,30.1,29.98,East,84,0.0,0.0,32,0.00,CLR,FEW,0.00,0.0,WeatherDisplay:10.37,2013-03-24 04:05:00,
2013-03-23 21:06:00,59.9,29.9,29.98,East,84,0.0,0.0,32,0.00,CLR,FEW,0.00,0.0,WeatherDisplay:10.37,2013-03-24 04:06:00,
2013-03-23 21:08:00,59.9,29.9,29.98,East,84,0.0,0.0,32,0.00,CLR,FEW,0.00,0.0,WeatherDisplay:10.37,2013-03-24 04:08:00,
2013-03-23 21:10:00,59.6,29.7,29.98,East,84,0.0,0.0,32,0.00,CLR,FEW,0.00,0.0,WeatherDisplay:10.37,2013-03-24 04:10:00,
2013-03-23 21:11:00,59.6,29.7,29.98,East,84,0.0,0.0,32,0.00,CLR,FEW,0.00,0.0,WeatherDisplay:10.37,2013-03-24 04:11:00,
2013-03-23 21:12:00,59.6,29.7,29.98,East,84,0.0,0.0,32,0.00,CLR,FEW,0.00,0.0,WeatherDisplay:10.37,2013-03-24 04:12:00,
2013-03-23 21:13:00,59.6,29.7,29.98,East,84,0.0,0.0,32,0.00,CLR,FEW,0.00,0.0,WeatherDisplay:10.37,2013-03-24 04:13:00,
2013-03-23 21:16:00,59.6,29.7,29.99,East,84,0.0,0.0,32,0.00,CLR,FEW,0.00,0.0,WeatherDisplay:10.37,2013-03-24 04:16:00,
2013-03-23 21:17:00,59.6,29.7,29.99,East,84,0.0,0.0,32,0.00,CLR,FEW,0.00,0.0,WeatherDisplay:10.37,2013-03-24 04:17:00,
2013-03-23 21:18:00,59.8,29.9,29.99,East,84,0.0,0.0,32,0.00,CLR,FEW,0.00,0.0,WeatherDisplay:10.37,2013-03-24 04:18:00,
2013-03-23 21:19:00,59.8,29.9,29.99,East,84,0.0,0.0,32,0.00,CLR,FEW,0.00,0.0,WeatherDisplay:10.37,2013-03-24 04:19:00,
2013-03-23 21:21:00,59.8,29.9,29.99,East,84,0.0,0.0,32,0.00,CLR,FEW,0.00,0.0,WeatherDisplay:10.37,2013-03-24 04:21:00,
2013-03-23 21:24:00,59.9,29.2,29.99,East,84,0.0,0.0,31,0.00,CLR,FEW,0.00,0.0,WeatherDisplay:10.37,2013-03-24 04:24:00,
2013-03-23 21:26:00,60.2,29.4,29.99,East,84,0.0,0.0,31,0.00,CLR,FEW,0.00,0.0,WeatherDisplay:10.37,2013-03-24 04:26:00,
2013-03-23 21:29:00,60.2,30.2,29.99,East,84,0.0,0.0,32,0.00,CLR,FEW,0.00,0.0,WeatherDisplay:10.37,2013-03-24 04:29:00,
2013-03-23 21:30:00,60.2,30.2,29.99,East,84,0.0,0.0,32,0.00,CLR,FEW,0.00,0.0,WeatherDisplay:10.37,2013-03-24 04:30:00,
2013-03-23 21:32:00,60.2,30.2,29.99,East,84,0.0,0.0,32,0.00,CLR,FEW,0.00,0.0,WeatherDisplay:10.37,2013-03-24 04:32:00,
2013-03-23 21:35:00,60.2,30.2,29.99,East,84,0.0,0.0,32,0.00,CLR,FEW,0.00,0.0,WeatherDisplay:10.37,2013-03-24 04:35:00,
2013-03-23 21:36:00,60.2,31.0,29.99,East,84,0.0,0.0,33,0.00,CLR,FEW,0.00,0.0,WeatherDisplay:10.37,2013-03-24 04:36:00,
2013-03-23 21:38:00,60.2,31.7,29.99,East,84,0.0,0.0,34,0.00,CLR,FEW,0.00,0.0,WeatherDisplay:10.37,2013-03-24 04:38:00,
2013-03-23 21:40:00,59.9,30.7,29.99,East,84,0.0,0.0,33,0.00,CLR,FEW,0.00,0.0,WeatherDisplay:10.37,2013-03-24 04:40:00,
2013-03-23 21:43:00,59.8,30.6,29.99,East,84,0.0,0.0,33,0.00,CLR,FEW,0.00,0.0,WeatherDisplay:10.37,2013-03-24 04:43:00,
2013-03-23 21:44:00,59.6,30.4,29.99,East,84,0.0,0.0,33,0.00,CLR,FEW,0.00,0.0,WeatherDisplay:10.37,2013-03-24 04:44:00,
2013-03-23 21:45:00,59.5,31.1,30.00,East,84,0.0,0.0,34,0.00,CLR,FEW,0.00,0.0,WeatherDisplay:10.37,2013-03-24 04:45:00,
2013-03-23 21:48:00,59.3,31.6,30.00,East,84,0.0,0.0,35,0.00,CLR,FEW,0.00,0.0,WeatherDisplay:10.37,2013-03-24 04:48:00,
2013-03-23 21:49:00,59.2,30.8,30.00,East,84,0.0,0.0,34,0.00,CLR,FEW,0.00,0.0,WeatherDisplay:10.37,2013-03-24 04:49:00,
2013-03-23 21:50:00,59.0,30.6,30.00,East,84,0.0,0.0,34,0.00,CLR,FEW,0.00,0.0,WeatherDisplay:10.37,2013-03-24 04:50:00,
2013-03-23 21:54:00,58.7,30.4,30.00,East,84,0.0,0.0,34,0.00,CLR,FEW,0.00,0.0,WeatherDisplay:10.37,2013-03-24 04:54:00,
2013-03-23 21:55:00,58.6,30.3,30.00,East,84,0.0,0.0,34,0.00,CLR,FEW,0.00,0.0,WeatherDisplay:10.37,2013-03-24 04:55:00,
2013-03-23 21:56:00,58.7,29.6,30.00,East,84,0.0,0.0,33,0.00,CLR,FEW,0.00,0.0,WeatherDisplay:10.37,2013-03-24 04:56:00,
2013-03-23 21:57:00,58.7,29.6,30.00,East,84,0.0,0.0,33,0.00,CLR,FEW,0.00,0.0,WeatherDisplay:10.37,2013-03-24 04:57:00,
2013-03-23 21:59:00,58.7,29.6,30.00,East,85,0.0,0.0,33,0.00,CLR,FEW,0.00,0.0,WeatherDisplay:10.37,2013-03-24 04:59:00,
2013-03-23 22:00:00,58.7,29.6,30.00,East,85,0.0,0.0,33,0.00,CLR,FEW,0.00,0.0,WeatherDisplay:10.37,2013-03-24 05:00:00,
2013-03-23 22:02:00,58.7,28.9,30.00,East,85,0.0,0.0,32,0.00,CLR,FEW,0.00,0.0,WeatherDisplay:10.37,2013-03-24 05:02:00,
2013-03-23 22:03:00,58.7,28.9,30.00,East,85,0.0,0.0,32,0.00,CLR,FEW,0.00,0.0,WeatherDisplay:10.37,2013-03-24 05:03:00,
2013-03-23 22:04:00,58.7,28.9,30.00,East,85,0.0,0.0,32,0.00,CLR,FEW,0.00,0.0,WeatherDisplay:10.37,2013-03-24 05:04:00,
2013-03-23 22:06:00,58.6,29.6,30.00,East,85,0.0,0.0,33,0.00,CLR,FEW,0.00,0.0,WeatherDisplay:10.37,2013-03-24 05:06:00,
2013-03-23 22:07:00,58.4,29.4,30.00,East,85,0.0,0.0,33,0.00,CLR,FEW,0.00,0.0,WeatherDisplay:10.37,2013-03-24 05:07:00,
2013-03-23 22:08:00,58.1,29.8,30.00,East,85,0.0,0.0,34,0.00,CLR,FEW,0.00,0.0,WeatherDisplay:10.37,2013-03-24 05:08:00,
2013-03-23 22:09:00,58.1,29.8,30.00,East,85,0.0,0.0,34,0.00,CLR,FEW,0.00,0.0,WeatherDisplay:10.37,2013-03-24 05:09:00,
2013-03-23 22:11:00,57.8,30.3,30.00,East,85,0.0,0.0,35,0.00,CLR,FEW,0.00,0.0,WeatherDisplay:10.37,2013-03-24 05:11:00,
2013-03-23 22:13:00,57.6,30.1,30.00,North,360,0.0,0.0,35,0.00,CLR,FEW,0.00,0.0,WeatherDisplay:10.37,2013-03-24 05:13:00,
2013-03-23 22:15:00,57.6,30.8,30.00,North,360,0.0,0.0,36,0.00,CLR,FEW,0.00,0.0,WeatherDisplay:10.37,2013-03-24 05:15:00,
2013-03-23 22:18:00,57.5,30.7,30.00,North,360,0.0,0.0,36,0.00,CLR,FEW,0.00,0.0,WeatherDisplay:10.37,2013-03-24 05:18:00,
2013-03-23 22:21:00,57.3,30.5,30.00,North,360,0.0,0.0,36,0.00,CLR,FEW,0.00,0.0,WeatherDisplay:10.37,2013-03-24 05:21:00,
2013-03-23 22:22:00,57.3,30.5,30.00,North,360,0.0,0.0,36,0.00,CLR,FEW,0.00,0.0,WeatherDisplay:10.37,2013-03-24 05:22:00,
2013-03-23 22:23:00,57.2,30.5,30.00,North,360,0.0,0.0,36,0.00,CLR,FEW,0.00,0.0,WeatherDisplay:10.37,2013-03-24 05:23:00,
2013-03-23 22:24:00,57.2,30.5,30.00,North,360,0.0,0.0,36,0.00,CLR,FEW,0.00,0.0,WeatherDisplay:10.37,2013-03-24 05:24:00,
2013-03-23 22:28:00,57.0,30.3,30.00,North,360,0.0,0.0,36,0.00,CLR,FEW,0.00,0.0,WeatherDisplay:10.37,2013-03-24 05:28:00,
2013-03-23 22:29:00,56.9,30.9,30.00,North,360,0.0,0.0,37,0.00,CLR,FEW,0.00,0.0,WeatherDisplay:10.37,2013-03-24 05:29:00,
2013-03-23 22:33:00,56.5,31.2,30.00,North,360,0.0,0.0,38,0.00,CLR,FEW,0.00,0.0,WeatherDisplay:10.37,2013-03-24 05:33:00,
2013-03-23 22:34:00,56.3,31.0,30.00,North,360,0.0,0.0,38,0.00,CLR,FEW,0.00,0.0,WeatherDisplay:10.37,2013-03-24 05:34:00,
2013-03-23 22:38:00,56.5,31.2,30.00,North,360,0.0,0.0,38,0.00,CLR,FEW,0.00,0.0,WeatherDisplay:10.37,2013-03-24 05:38:00,
2013-03-23 22:39:00,56.5,31.2,30.00,North,360,0.0,0.0,38,0.00,CLR,FEW,0.00,0.0,WeatherDisplay:10.37,2013-03-24 05:39:00,
2013-03-23 22:40:00,56.5,31.2,30.00,North,360,0.0,0.0,38,0.00,CLR,FEW,0.00,0.0,WeatherDisplay:10.37,2013-03-24 05:40:00,
2013-03-23 22:43:00,56.5,31.2,30.00,North,360,0.0,0.0,38,0.00,CLR,FEW,0.00,0.0,WeatherDisplay:10.37,2013-03-24 05:43:00,
2013-03-23 22:44:00,56.5,30.5,30.00,North,360,0.0,0.0,37,0.00,CLR,FEW,0.00,0.0,WeatherDisplay:10.37,2013-03-24 05:44:00,
2013-03-23 22:45:00,56.5,30.5,30.00,North,360,0.0,0.0,37,0.00,CLR,FEW,0.00,0.0,WeatherDisplay:10.37,2013-03-24 05:45:00,
2013-03-23 22:46:00,56.5,31.2,30.01,North,360,0.0,0.0,38,0.00,CLR,FEW,0.00,0.0,WeatherDisplay:10.37,2013-03-24 05:46:00,
2013-03-23 22:49:00,56.5,30.5,30.01,North,360,0.0,0.0,37,0.00,CLR,FEW,0.00,0.0,WeatherDisplay:10.37,2013-03-24 05:49:00,
2013-03-23 22:50:00,56.5,30.5,30.01,North,360,0.0,0.0,37,0.00,CLR,FEW,0.00,0.0,WeatherDisplay:10.37,2013-03-24 05:50:00,
2013-03-23 22:51:00,56.6,30.6,30.01,North,360,0.0,0.0,37,0.00,CLR,FEW,0.00,0.0,WeatherDisplay:10.37,2013-03-24 05:51:00,
2013-03-23 22:55:00,56.4,31.1,30.01,North,360,0.0,0.0,38,0.00,CLR,FEW,0.00,0.0,WeatherDisplay:10.37,2013-03-24 05:55:00,
2013-03-23 22:56:00,56.2,30.9,30.01,North,360,0.0,0.0,38,0.00,CLR,FEW,0.00,0.0,WeatherDisplay:10.37,2013-03-24 05:56:00,
2013-03-23 22:57:00,56.2,30.9,30.01,North,360,0.0,0.0,38,0.00,CLR,FEW,0.00,0.0,WeatherDisplay:10.37,2013-03-24 05:57:00,
2013-03-23 23:00:00,55.7,31.1,30.01,North,360,0.0,0.0,39,0.00,CLR,FEW,0.00,0.0,WeatherDisplay:10.37,2013-03-24 06:00:00,
2013-03-23 23:01:00,55.7,31.1,30.00,North,360,0.0,0.0,39,0.00,CLR,FEW,0.00,0.0,WeatherDisplay:10.37,2013-03-24 06:01:00,
2013-03-23 23:02:00,55.6,31.6,30.00,North,360,0.0,0.0,40,0.00,CLR,FEW,0.00,0.0,WeatherDisplay:10.37,2013-03-24 06:02:00,
2013-03-23 23:03:00,55.4,31.5,30.00,East,88,0.0,0.0,40,0.00,CLR,FEW,0.00,0.0,WeatherDisplay:10.37,2013-03-24 06:03:00,
2013-03-23 23:06:00,55.3,31.4,30.00,East,91,0.0,0.0,40,0.00,CLR,FEW,0.00,0.0,WeatherDisplay:10.37,2013-03-24 06:06:00,
2013-03-23 23:07:00,55.3,32.0,30.00,North,360,0.0,0.0,41,0.00,CLR,FEW,0.00,0.0,WeatherDisplay:10.37,2013-03-24 06:07:00,
2013-03-23 23:09:00,55.1,31.8,30.00,North,360,0.0,0.0,41,0.00,CLR,FEW,0.00,0.0,WeatherDisplay:10.37,2013-03-24 06:09:00,
2013-03-23 23:10:00,55.1,31.8,30.00,North,360,0.0,0.0,41,0.00,CLR,FEW,0.00,0.0,WeatherDisplay:10.37,2013-03-24 06:10:00,
2013-03-23 23:12:00,55.3,31.4,30.00,North,360,0.0,0.0,40,0.00,CLR,FEW,0.00,0.0,WeatherDisplay:10.37,2013-03-24 06:12:00,
2013-03-23 23:13:00,55.4,31.5,30.00,North,360,0.0,0.0,40,0.00,CLR,FEW,0.00,0.0,WeatherDisplay:10.37,2013-03-24 06:13:00,
2013-03-23 23:14:00,55.6,31.6,30.00,North,360,0.0,0.0,40,0.00,CLR,FEW,0.00,0.0,WeatherDisplay:10.37,2013-03-24 06:14:00,
2013-03-23 23:17:00,55.9,31.3,30.01,North,360,0.0,0.0,39,0.00,CLR,FEW,0.00,0.0,WeatherDisplay:10.37,2013-03-24 06:17:00,
2013-03-23 23:18:00,56.0,31.4,30.01,North,360,0.0,0.0,39,0.00,CLR,FEW,0.00,0.0,WeatherDisplay:10.37,2013-03-24 06:18:00,
2013-03-23 23:20:00,56.2,31.5,30.01,North,360,0.0,0.0,39,0.00,CLR,FEW,0.00,0.0,WeatherDisplay:10.37,2013-03-24 06:20:00,
2013-03-23 23:22:00,56.5,31.2,30.01,North,360,0.0,0.0,38,0.00,CLR,FEW,0.00,0.0,WeatherDisplay:10.37,2013-03-24 06:22:00,
2013-03-23 23:23:00,56.5,31.2,30.01,North,360,0.0,0.0,38,0.00,CLR,FEW,0.00,0.0,WeatherDisplay:10.37,2013-03-24 06:23:00,
2013-03-23 23:25:00,56.6,31.3,30.01,North,360,0.0,0.0,38,0.00,CLR,FEW,0.00,0.0,WeatherDisplay:10.37,2013-03-24 06:25:00,
2013-03-23 23:28:00,56.7,31.4,30.01,North,360,0.0,0.0,38,0.00,CLR,FEW,0.00,0.0,WeatherDisplay:10.37,2013-03-24 06:28:00,
2013-03-23 23:29:00,56.7,31.4,30.01,North,360,0.0,0.0,38,0.00,CLR,FEW,0.00,0.0,WeatherDisplay:10.37,2013-03-24 06:29:00,
2013-03-23 23:30:00,56.9,31.5,30.01,East,90,0.0,0.0,38,0.00,CLR,FEW,0.00,0.0,WeatherDisplay:10.37,2013-03-24 06:30:00,
2013-03-23 23:34:00,56.7,32.0,30.01,East,88,0.0,0.0,39,0.00,CLR,FEW,0.00,0.0,WeatherDisplay:10.37,2013-03-24 06:34:00,
2013-03-23 23:35:00,56.7,31.4,30.01,East,88,0.0,0.0,38,0.00,CLR,FEW,0.00,0.0,WeatherDisplay:10.37,2013-03-24 06:35:00,
2013-03-23 23:39:00,56.6,31.3,30.01,East,88,0.0,0.0,38,0.00,CLR,FEW,0.00,0.0,WeatherDisplay:10.37,2013-03-24 06:39:00,
2013-03-23 23:40:00,56.6,31.3,30.01,East,88,0.0,0.0,38,0.00,CLR,FEW,0.00,0.0,WeatherDisplay:10.37,2013-03-24 06:40:00,
2013-03-23 23:44:00,56.6,31.3,30.01,East,88,0.0,0.0,38,0.00,CLR,FEW,0.00,0.0,WeatherDisplay:10.37,2013-03-24 06:44:00,
2013-03-23 23:45:00,56.6,31.3,30.01,East,88,0.0,0.0,38,0.00,CLR,FEW,0.00,0.0,WeatherDisplay:10.37,2013-03-24 06:45:00,
2013-03-23 23:47:00,56.6,31.3,30.01,East,88,0.0,0.0,38,0.00,CLR,FEW,0.00,0.0,WeatherDisplay:10.37,2013-03-24 06:47:00,
2013-03-23 23:51:00,56.0,31.4,30.01,East,88,0.0,0.0,39,0.00,CLR,FEW,0.00,0.0,WeatherDisplay:10.37,2013-03-24 06:51:00,
2013-03-23 23:52:00,55.9,31.3,30.01,East,87,0.0,0.0,39,0.00,CLR,FEW,0.00,0.0,WeatherDisplay:10.37,2013-03-24 06:52:00,
2013-03-23 23:53:00,55.7,31.7,30.01,East,87,0.0,0.0,40,0.00,CLR,FEW,0.00,0.0,WeatherDisplay:10.37,2013-03-24 06:53:00,
2013-03-23 23:56:00,55.4,31.5,30.01,North,360,0.0,0.0,40,0.00,CLR,FEW,0.00,0.0,WeatherDisplay:10.37,2013-03-24 06:56:00,
2013-03-23 23:58:00,55.3,32.0,30.01,North,360,0.0,0.0,41,0.00,CLR,FEW,0.00,0.0,WeatherDisplay:10.37,2013-03-24 06:58:00,